Time,TemperatureF,DewpointF,PressureIn,WindDirection,WindDirectionDegrees,WindSpeedMPH,WindSpeedGustMPH,Humidity,HourlyPrecipIn,Conditions,Clouds,dailyrainin,SoftwareType,DateUTC
2013-04-10 00:00:00,73.8,70.7,29.63,SE,137,14.0,16.0,90,0.00,,---,0.00,VWS V14.01,2013-04-10 05:00:00,
2013-04-10 00:01:00,73.7,70.6,29.64,SE,136,15.0,20.0,90,0.00,,---,0.00,VWS V14.01,2013-04-10 05:01:00,
2013-04-10 00:02:00,73.7,70.6,29.64,SE,130,9.0,20.0,90,0.00,,---,0.00,VWS V14.01,2013-04-10 05:02:00,
2013-04-10 00:03:00,73.7,70.6,29.64,SE,144,12.0,19.0,90,0.00,,---,0.00,VWS V14.01,2013-04-10 05:03:00,
2013-04-10 00:04:00,73.7,70.6,29.63,ESE,111,16.0,22.0,90,0.00,,---,0.00,VWS V14.01,2013-04-10 05:04:00,
2013-04-10 00:05:00,73.7,70.6,29.63,ESE,111,16.0,22.0,90,0.00,,---,0.00,VWS V14.01,2013-04-10 05:05:00,
2013-04-10 00:06:00,73.7,70.6,29.64,SE,140,19.0,25.0,90,0.00,,---,0.00,VWS V14.01,2013-04-10 05:06:00,
2013-04-10 00:07:00,73.7,70.6,29.64,SE,128,14.0,23.0,90,0.00,,---,0.00,VWS V14.01,2013-04-10 05:07:00,
2013-04-10 00:08:00,73.7,70.9,29.64,ESE,123,19.0,21.0,91,0.00,,---,0.00,VWS V14.01,2013-04-10 05:08:00,
2013-04-10 00:09:00,73.7,70.9,29.63,SE,129,14.0,21.0,91,0.00,,---,0.00,VWS V14.01,2013-04-10 05:09:00,
2013-04-10 00:10:00,73.7,70.9,29.63,ESE,102,20.0,21.0,91,0.00,,---,0.00,VWS V14.01,2013-04-10 05:10:00,
2013-04-10 00:11:00,73.7,70.9,29.63,SE,138,10.0,14.0,91,0.00,,---,0.00,VWS V14.01,2013-04-10 05:11:00,
2013-04-10 00:12:00,73.6,70.8,29.64,SE,142,18.0,22.0,91,0.00,,---,0.00,VWS V14.01,2013-04-10 05:12:00,
2013-04-10 00:13:00,73.6,70.8,29.64,SSE,153,12.0,18.0,91,0.00,,---,0.00,VWS V14.01,2013-04-10 05:13:00,
2013-04-10 00:14:00,73.6,70.8,29.64,SE,140,7.0,15.0,91,0.00,,---,0.00,VWS V14.01,2013-04-10 05:14:00,
2013-04-10 00:15:00,73.6,70.8,29.64,SE,137,6.0,15.0,91,0.00,,---,0.00,VWS V14.01,2013-04-10 05:15:00,
2013-04-10 00:16:00,73.6,70.8,29.63,ESE,112,15.0,23.0,91,0.00,,---,0.00,VWS V14.01,2013-04-10 05:16:00,
2013-04-10 00:17:00,73.6,70.8,29.64,SE,134,20.0,20.0,91,0.00,,---,0.00,VWS V14.01,2013-04-10 05:17:00,
2013-04-10 00:18:00,73.6,70.8,29.64,ESE,123,13.0,22.0,91,0.00,,---,0.00,VWS V14.01,2013-04-10 05:18:00,
2013-04-10 00:19:00,73.6,70.8,29.64,SSE,164,15.0,20.0,91,0.00,,---,0.00,VWS V14.01,2013-04-10 05:19:00,
2013-04-10 00:20:00,73.6,70.8,29.64,SE,132,16.0,20.0,91,0.00,,---,0.00,VWS V14.01,2013-04-10 05:20:00,
2013-04-10 00:21:00,73.5,70.7,29.64,SE,130,15.0,23.0,91,0.00,,---,0.00,VWS V14.01,2013-04-10 05:21:00,
2013-04-10 00:22:00,73.5,70.7,29.64,SE,140,15.0,21.0,91,0.00,,---,0.00,VWS V14.01,2013-04-10 05:22:00,
2013-04-10 00:23:00,73.5,70.7,29.64,SE,142,21.0,21.0,91,0.00,,---,0.00,VWS V14.01,2013-04-10 05:23:00,
2013-04-10 00:24:00,73.5,70.7,29.64,SE,139,13.0,21.0,91,0.00,,---,0.00,VWS V14.01,2013-04-10 05:24:00,
2013-04-10 00:25:00,73.5,70.7,29.64,SE,130,15.0,21.0,91,0.00,,---,0.00,VWS V14.01,2013-04-10 05:25:00,
2013-04-10 00:26:00,73.5,70.7,29.64,SE,141,13.0,19.0,91,0.00,,---,0.00,VWS V14.01,2013-04-10 05:26:00,
2013-04-10 00:27:00,73.5,70.7,29.64,SE,130,13.0,18.0,91,0.00,,---,0.00,VWS V14.01,2013-04-10 05:27:00,
2013-04-10 00:29:00,73.5,70.7,29.64,SSE,152,17.0,20.0,91,0.00,,---,0.00,VWS V14.01,2013-04-10 05:29:00,
2013-04-10 00:30:00,73.5,70.7,29.64,SSE,152,17.0,20.0,91,0.00,,---,0.00,VWS V14.01,2013-04-10 05:30:00,
2013-04-10 00:31:00,73.5,70.7,29.64,SE,144,9.0,19.0,91,0.00,,---,0.00,VWS V14.01,2013-04-10 05:31:00,
2013-04-10 00:32:00,73.5,70.7,29.64,SE,144,9.0,19.0,91,0.00,,---,0.00,VWS V14.01,2013-04-10 05:32:00,
2013-04-10 00:33:00,73.5,70.7,29.64,South,173,11.0,19.0,91,0.00,,---,0.00,VWS V14.01,2013-04-10 05:33:00,
2013-04-10 00:34:00,73.5,70.7,29.64,SSE,149,14.0,16.0,91,0.00,,---,0.00,VWS V14.01,2013-04-10 05:34:00,
2013-04-10 00:35:00,73.5,70.7,29.64,SSE,149,14.0,16.0,91,0.00,,---,0.00,VWS V14.01,2013-04-10 05:35:00,
2013-04-10 00:36:00,73.5,70.7,29.64,SE,142,17.0,20.0,91,0.00,,---,0.00,VWS V14.01,2013-04-10 05:36:00,
2013-04-10 00:37:00,73.5,70.7,29.64,SE,125,15.0,20.0,91,0.00,,---,0.00,VWS V14.01,2013-04-10 05:37:00,
2013-04-10 00:38:00,73.5,70.7,29.64,ESE,122,17.0,23.0,91,0.00,,---,0.00,VWS V14.01,2013-04-10 05:38:00,
2013-04-10 00:39:00,73.5,70.7,29.64,SSE,157,18.0,21.0,91,0.00,,---,0.00,VWS V14.01,2013-04-10 05:39:00,
2013-04-10 00:40:00,73.5,70.7,29.64,SSE,157,18.0,21.0,91,0.00,,---,0.00,VWS V14.01,2013-04-10 05:40:00,
2013-04-10 00:41:00,73.5,70.7,29.64,SSE,150,13.0,24.0,91,0.00,,---,0.00,VWS V14.01,2013-04-10 05:41:00,
2013-04-10 00:42:00,73.5,70.7,29.64,SE,142,15.0,19.0,91,0.00,,---,0.00,VWS V14.01,2013-04-10 05:42:00,
2013-04-10 00:43:00,73.5,70.7,29.64,SSE,152,14.0,15.0,91,0.00,,---,0.00,VWS V14.01,2013-04-10 05:43:00,
2013-04-10 00:44:00,73.5,70.7,29.64,SE,131,10.0,19.0,91,0.00,,---,0.00,VWS V14.01,2013-04-10 05:44:00,
2013-04-10 00:45:00,73.5,70.7,29.64,SE,131,10.0,19.0,91,0.00,,---,0.00,VWS V14.01,2013-04-10 05:45:00,
2013-04-10 00:46:00,73.5,70.7,29.64,SE,146,14.0,20.0,91,0.00,,---,0.00,VWS V14.01,2013-04-10 05:46:00,
2013-04-10 00:47:00,73.5,70.7,29.64,SE,142,24.0,26.0,91,0.00,,---,0.00,VWS V14.01,2013-04-10 05:47:00,
2013-04-10 00:48:00,73.5,70.7,29.64,ESE,123,18.0,24.0,91,0.00,,---,0.00,VWS V14.01,2013-04-10 05:48:00,
2013-04-10 00:49:00,73.5,70.7,29.64,SSE,148,15.0,19.0,91,0.00,,---,0.00,VWS V14.01,2013-04-10 05:49:00,
2013-04-10 00:50:00,73.5,70.7,29.64,SSE,148,15.0,19.0,91,0.00,,---,0.00,VWS V14.01,2013-04-10 05:50:00,
2013-04-10 00:51:00,73.5,70.7,29.64,SE,135,17.0,18.0,91,0.00,,---,0.00,VWS V14.01,2013-04-10 05:51:00,
2013-04-10 00:52:00,73.5,70.7,29.64,SE,138,14.0,26.0,91,0.00,,---,0.00,VWS V14.01,2013-04-10 05:52:00,
2013-04-10 00:53:00,73.5,70.7,29.64,SSE,153,6.0,17.0,91,0.00,,---,0.00,VWS V14.01,2013-04-10 05:53:00,
2013-04-10 00:54:00,73.5,70.7,29.64,ESE,121,15.0,20.0,91,0.00,,---,0.00,VWS V14.01,2013-04-10 05:54:00,
2013-04-10 00:55:00,73.5,70.7,29.64,SE,127,20.0,20.0,91,0.00,,---,0.00,VWS V14.01,2013-04-10 05:55:00,
2013-04-10 00:56:00,73.5,70.7,29.64,SSE,164,16.0,20.0,91,0.00,,---,0.00,VWS V14.01,2013-04-10 05:56:00,
2013-04-10 00:57:00,73.5,70.7,29.64,SSE,151,17.0,22.0,91,0.00,,---,0.00,VWS V14.01,2013-04-10 05:57:00,
2013-04-10 00:58:00,73.5,70.7,29.64,SSE,155,15.0,18.0,91,0.00,,---,0.00,VWS V14.01,2013-04-10 05:58:00,
2013-04-10 00:59:00,73.5,70.7,29.64,SSE,148,18.0,20.0,91,0.00,,---,0.00,VWS V14.01,2013-04-10 05:59:00,
2013-04-10 01:00:00,73.5,70.7,29.64,SSE,148,18.0,20.0,91,0.00,,---,0.00,VWS V14.01,2013-04-10 06:00:00,
2013-04-10 01:01:00,73.5,70.7,29.64,SSE,150,15.0,16.0,91,0.00,,---,0.00,VWS V14.01,2013-04-10 06:01:00,
2013-04-10 01:02:00,73.5,70.7,29.64,SE,141,14.0,18.0,91,0.00,,---,0.00,VWS V14.01,2013-04-10 06:02:00,
2013-04-10 01:03:00,73.5,70.7,29.64,SE,142,13.0,20.0,91,0.00,,---,0.00,VWS V14.01,2013-04-10 06:03:00,
2013-04-10 01:04:00,73.5,70.7,29.64,SE,134,15.0,18.0,91,0.00,,---,0.00,VWS V14.01,2013-04-10 06:04:00,
2013-04-10 01:05:00,73.5,70.7,29.64,SE,136,16.0,18.0,91,0.00,,---,0.00,VWS V14.01,2013-04-10 06:05:00,
2013-04-10 01:06:00,73.4,70.6,29.64,SE,142,14.0,14.0,91,0.00,,---,0.00,VWS V14.01,2013-04-10 06:06:00,
2013-04-10 01:07:00,73.4,70.6,29.64,SSE,159,14.0,18.0,91,0.00,,---,0.00,VWS V14.01,2013-04-10 06:07:00,
2013-04-10 01:08:00,73.4,70.6,29.64,SSE,149,17.0,25.0,91,0.00,,---,0.00,VWS V14.01,2013-04-10 06:08:00,
2013-04-10 01:09:00,73.5,70.7,29.64,SE,132,15.0,17.0,91,0.00,,---,0.00,VWS V14.01,2013-04-10 06:09:00,
2013-04-10 01:10:00,73.5,70.7,29.64,SE,142,11.0,17.0,91,0.00,,---,0.00,VWS V14.01,2013-04-10 06:10:00,
2013-04-10 01:11:00,73.4,70.6,29.64,SSE,152,15.0,19.0,91,0.00,,---,0.00,VWS V14.01,2013-04-10 06:11:00,
2013-04-10 01:12:00,73.5,70.7,29.64,SE,129,17.0,20.0,91,0.00,,---,0.00,VWS V14.01,2013-04-10 06:12:00,
2013-04-10 01:13:00,73.4,70.6,29.64,SSE,147,13.0,17.0,91,0.00,,---,0.00,VWS V14.01,2013-04-10 06:13:00,
2013-04-10 01:14:00,73.4,70.6,29.64,SE,143,13.0,19.0,91,0.00,,---,0.00,VWS V14.01,2013-04-10 06:14:00,
2013-04-10 01:15:00,73.4,70.6,29.64,SSE,163,15.0,19.0,91,0.00,,---,0.00,VWS V14.01,2013-04-10 06:15:00,
2013-04-10 01:16:00,73.5,70.7,29.64,SE,140,17.0,19.0,91,0.00,,---,0.00,VWS V14.01,2013-04-10 06:16:00,
2013-04-10 01:17:00,73.5,70.7,29.64,SSE,148,13.0,27.0,91,0.00,,---,0.00,VWS V14.01,2013-04-10 06:17:00,
2013-04-10 01:18:00,73.4,70.6,29.64,SE,134,21.0,25.0,91,0.00,,---,0.00,VWS V14.01,2013-04-10 06:18:00,
2013-04-10 01:19:00,73.5,70.7,29.64,South,190,17.0,21.0,91,0.00,,---,0.00,VWS V14.01,2013-04-10 06:19:00,
2013-04-10 01:20:00,73.5,70.7,29.64,SE,146,12.0,21.0,91,0.00,,---,0.00,VWS V14.01,2013-04-10 06:20:00,
2013-04-10 01:21:00,73.4,70.6,29.64,SSE,161,16.0,22.0,91,0.00,,---,0.00,VWS V14.01,2013-04-10 06:21:00,
2013-04-10 01:22:00,73.4,70.6,29.64,SSE,148,10.0,17.0,91,0.00,,---,0.00,VWS V14.01,2013-04-10 06:22:00,
2013-04-10 01:23:00,73.4,70.6,29.64,SE,145,15.0,20.0,91,0.00,,---,0.00,VWS V14.01,2013-04-10 06:23:00,
2013-04-10 01:24:00,73.4,70.6,29.64,SE,138,15.0,21.0,91,0.00,,---,0.00,VWS V14.01,2013-04-10 06:24:00,
2013-04-10 01:25:00,73.4,70.6,29.64,SSE,150,17.0,21.0,91,0.00,,---,0.00,VWS V14.01,2013-04-10 06:25:00,
2013-04-10 01:26:00,73.4,70.6,29.64,SE,141,10.0,17.0,91,0.00,,---,0.00,VWS V14.01,2013-04-10 06:26:00,
2013-04-10 01:27:00,73.4,70.6,29.64,SSE,166,18.0,22.0,91,0.00,,---,0.00,VWS V14.01,2013-04-10 06:27:00,
2013-04-10 01:28:00,73.4,70.6,29.64,ESE,123,11.0,18.0,91,0.00,,---,0.00,VWS V14.01,2013-04-10 06:28:00,
2013-04-10 01:29:00,73.4,70.6,29.64,SSE,150,13.0,15.0,91,0.00,,---,0.00,VWS V14.01,2013-04-10 06:29:00,
2013-04-10 01:30:00,73.4,70.6,29.64,SSE,150,13.0,15.0,91,0.00,,---,0.00,VWS V14.01,2013-04-10 06:30:00,
2013-04-10 01:31:00,73.4,70.6,29.64,SE,140,10.0,20.0,91,0.00,,---,0.00,VWS V14.01,2013-04-10 06:31:00,
2013-04-10 01:32:00,73.4,70.6,29.64,SE,127,18.0,19.0,91,0.00,,---,0.00,VWS V14.01,2013-04-10 06:32:00,
2013-04-10 01:33:00,73.4,70.6,29.64,SSE,157,7.0,21.0,91,0.00,,---,0.00,VWS V14.01,2013-04-10 06:33:00,
2013-04-10 01:34:00,73.4,70.6,29.64,SSE,164,14.0,20.0,91,0.00,,---,0.00,VWS V14.01,2013-04-10 06:34:00,
2013-04-10 01:35:00,73.4,70.6,29.64,SE,130,12.0,20.0,91,0.00,,---,0.00,VWS V14.01,2013-04-10 06:35:00,
2013-04-10 01:36:00,73.4,70.6,29.64,SSE,160,11.0,21.0,91,0.00,,---,0.00,VWS V14.01,2013-04-10 06:36:00,
2013-04-10 01:37:00,73.3,70.5,29.64,SSE,152,7.0,16.0,91,0.00,,---,0.00,VWS V14.01,2013-04-10 06:37:00,
2013-04-10 01:38:00,73.3,70.5,29.64,SSE,162,9.0,22.0,91,0.00,,---,0.00,VWS V14.01,2013-04-10 06:38:00,
2013-04-10 01:39:00,73.3,70.5,29.64,SSE,153,17.0,17.0,91,0.00,,---,0.00,VWS V14.01,2013-04-10 06:39:00,
2013-04-10 01:40:00,73.3,70.5,29.64,SSE,147,13.0,16.0,91,0.00,,---,0.00,VWS V14.01,2013-04-10 06:40:00,
2013-04-10 01:41:00,73.3,70.5,29.64,SSE,165,14.0,16.0,91,0.00,,---,0.00,VWS V14.01,2013-04-10 06:41:00,
2013-04-10 01:42:00,73.3,70.5,29.64,SE,146,12.0,20.0,91,0.00,,---,0.00,VWS V14.01,2013-04-10 06:42:00,
2013-04-10 01:43:00,73.3,70.5,29.64,SE,144,18.0,18.0,91,0.00,,---,0.00,VWS V14.01,2013-04-10 06:43:00,
2013-04-10 01:44:00,73.3,70.5,29.64,SE,146,11.0,22.0,91,0.00,,---,0.00,VWS V14.01,2013-04-10 06:44:00,
2013-04-10 01:45:00,73.3,70.5,29.64,SSE,156,15.0,22.0,91,0.00,,---,0.00,VWS V14.01,2013-04-10 06:45:00,
2013-04-10 01:46:00,73.3,70.5,29.64,SSE,148,13.0,18.0,91,0.00,,---,0.00,VWS V14.01,2013-04-10 06:46:00,
2013-04-10 01:47:00,73.3,70.5,29.64,SE,136,11.0,16.0,91,0.00,,---,0.00,VWS V14.01,2013-04-10 06:47:00,
2013-04-10 01:48:00,73.3,70.5,29.64,ESE,122,11.0,21.0,91,0.00,,---,0.00,VWS V14.01,2013-04-10 06:48:00,
2013-04-10 01:49:00,73.3,70.5,29.64,SE,126,10.0,22.0,91,0.00,,---,0.00,VWS V14.01,2013-04-10 06:49:00,
2013-04-10 01:50:00,73.3,70.5,29.64,SE,138,14.0,22.0,91,0.00,,---,0.00,VWS V14.01,2013-04-10 06:50:00,
2013-04-10 01:51:00,73.3,70.5,29.64,SSE,155,11.0,18.0,91,0.00,,---,0.00,VWS V14.01,2013-04-10 06:51:00,
2013-04-10 01:52:00,73.3,70.5,29.64,SE,133,16.0,23.0,91,0.00,,---,0.00,VWS V14.01,2013-04-10 06:52:00,
2013-04-10 01:53:00,73.3,70.5,29.64,SE,146,15.0,21.0,91,0.00,,---,0.00,VWS V14.01,2013-04-10 06:53:00,
2013-04-10 01:54:00,73.3,70.5,29.64,SE,144,11.0,18.0,91,0.00,,---,0.00,VWS V14.01,2013-04-10 06:54:00,
2013-04-10 01:55:00,73.3,70.5,29.64,SE,134,15.0,18.0,91,0.00,,---,0.00,VWS V14.01,2013-04-10 06:55:00,
2013-04-10 01:56:00,73.3,70.5,29.64,South,169,11.0,18.0,91,0.00,,---,0.00,VWS V14.01,2013-04-10 06:56:00,
2013-04-10 01:57:00,73.3,70.5,29.64,SSE,151,23.0,23.0,91,0.00,,---,0.00,VWS V14.01,2013-04-10 06:57:00,
2013-04-10 01:58:00,73.3,70.5,29.64,ESE,121,16.0,23.0,91,0.00,,---,0.00,VWS V14.01,2013-04-10 06:58:00,
2013-04-10 01:59:00,73.3,70.5,29.64,SE,146,18.0,19.0,91,0.00,,---,0.00,VWS V14.01,2013-04-10 06:59:00,
2013-04-10 02:00:00,73.3,70.5,29.64,SSE,150,11.0,19.0,91,0.00,,---,0.00,VWS V14.01,2013-04-10 07:00:00,
2013-04-10 02:01:00,73.3,70.5,29.63,SE,138,13.0,17.0,91,0.00,,---,0.00,VWS V14.01,2013-04-10 07:01:00,
2013-04-10 02:02:00,73.3,70.5,29.64,SE,124,15.0,19.0,91,0.00,,---,0.00,VWS V14.01,2013-04-10 07:02:00,
2013-04-10 02:03:00,73.3,70.5,29.63,SE,144,13.0,23.0,91,0.00,,---,0.00,VWS V14.01,2013-04-10 07:03:00,
2013-04-10 02:04:00,73.3,70.5,29.63,SE,146,14.0,18.0,91,0.00,,---,0.00,VWS V14.01,2013-04-10 07:04:00,
2013-04-10 02:05:00,73.3,70.5,29.63,SSE,164,11.0,18.0,91,0.00,,---,0.00,VWS V14.01,2013-04-10 07:05:00,
2013-04-10 02:06:00,73.3,70.5,29.63,SE,136,14.0,20.0,91,0.00,,---,0.00,VWS V14.01,2013-04-10 07:06:00,
2013-04-10 02:07:00,73.3,70.5,29.63,SSE,155,15.0,19.0,91,0.00,,---,0.00,VWS V14.01,2013-04-10 07:07:00,
2013-04-10 02:08:00,73.3,70.5,29.63,SSE,158,10.0,16.0,91,0.00,,---,0.00,VWS V14.01,2013-04-10 07:08:00,
2013-04-10 02:09:00,73.4,70.6,29.63,SE,146,7.0,13.0,91,0.00,,---,0.00,VWS V14.01,2013-04-10 07:09:00,
2013-04-10 02:10:00,73.4,70.6,29.63,SE,126,12.0,13.0,91,0.00,,---,0.00,VWS V14.01,2013-04-10 07:10:00,
2013-04-10 02:11:00,73.4,70.6,29.63,SE,136,16.0,18.0,91,0.00,,---,0.00,VWS V14.01,2013-04-10 07:11:00,
2013-04-10 02:12:00,73.3,70.5,29.64,SSE,162,13.0,26.0,91,0.00,,---,0.00,VWS V14.01,2013-04-10 07:12:00,
2013-04-10 02:13:00,73.4,70.6,29.63,SE,128,18.0,20.0,91,0.00,,---,0.00,VWS V14.01,2013-04-10 07:13:00,
2013-04-10 02:14:00,73.4,70.6,29.63,SE,128,15.0,18.0,91,0.00,,---,0.00,VWS V14.01,2013-04-10 07:14:00,
2013-04-10 02:15:00,73.4,70.6,29.63,SE,140,17.0,18.0,91,0.00,,---,0.00,VWS V14.01,2013-04-10 07:15:00,
2013-04-10 02:16:00,73.4,70.6,29.63,South,177,10.0,19.0,91,0.00,,---,0.00,VWS V14.01,2013-04-10 07:16:00,
2013-04-10 02:17:00,73.4,70.6,29.63,SSE,150,11.0,20.0,91,0.00,,---,0.00,VWS V14.01,2013-04-10 07:17:00,
2013-04-10 02:18:00,73.4,70.6,29.63,SE,133,9.0,14.0,91,0.00,,---,0.00,VWS V14.01,2013-04-10 07:18:00,
2013-04-10 02:19:00,73.4,70.6,29.63,ESE,123,14.0,15.0,91,0.00,,---,0.00,VWS V14.01,2013-04-10 07:19:00,
2013-04-10 02:20:00,73.4,70.6,29.63,ESE,105,10.0,15.0,91,0.00,,---,0.00,VWS V14.01,2013-04-10 07:20:00,
2013-04-10 02:21:00,73.4,70.6,29.63,SE,140,19.0,19.0,91,0.00,,---,0.00,VWS V14.01,2013-04-10 07:21:00,
2013-04-10 02:22:00,73.4,70.6,29.63,SE,136,15.0,22.0,91,0.00,,---,0.00,VWS V14.01,2013-04-10 07:22:00,
2013-04-10 02:23:00,73.4,70.6,29.63,SE,146,16.0,19.0,91,0.00,,---,0.00,VWS V14.01,2013-04-10 07:23:00,
2013-04-10 02:24:00,73.4,70.6,29.63,SE,138,10.0,17.0,91,0.00,,---,0.00,VWS V14.01,2013-04-10 07:24:00,
2013-04-10 02:25:00,73.4,70.6,29.63,SE,132,10.0,17.0,91,0.00,,---,0.00,VWS V14.01,2013-04-10 07:25:00,
2013-04-10 02:26:00,73.4,70.6,29.63,ESE,123,12.0,14.0,91,0.00,,---,0.00,VWS V14.01,2013-04-10 07:26:00,
2013-04-10 02:27:00,73.4,70.6,29.63,SSE,150,10.0,18.0,91,0.00,,---,0.00,VWS V14.01,2013-04-10 07:27:00,
2013-04-10 02:28:00,73.5,70.7,29.63,SSE,157,6.0,13.0,91,0.00,,---,0.00,VWS V14.01,2013-04-10 07:28:00,
2013-04-10 02:29:00,73.4,70.6,29.63,SSE,152,12.0,16.0,91,0.00,,---,0.00,VWS V14.01,2013-04-10 07:29:00,
2013-04-10 02:30:00,73.4,70.6,29.63,SSE,167,9.0,16.0,91,0.00,,---,0.00,VWS V14.01,2013-04-10 07:30:00,
2013-04-10 02:31:00,73.4,70.6,29.63,SE,146,13.0,17.0,91,0.00,,---,0.00,VWS V14.01,2013-04-10 07:31:00,
2013-04-10 02:32:00,73.4,70.6,29.63,SSE,167,9.0,15.0,91,0.00,,---,0.00,VWS V14.01,2013-04-10 07:32:00,
2013-04-10 02:33:00,73.4,70.6,29.63,SE,128,13.0,19.0,91,0.00,,---,0.00,VWS V14.01,2013-04-10 07:33:00,
2013-04-10 02:34:00,73.4,70.6,29.63,SSE,153,12.0,19.0,91,0.00,,---,0.00,VWS V14.01,2013-04-10 07:34:00,
2013-04-10 02:35:00,73.4,70.6,29.63,SE,138,9.0,11.0,91,0.00,,---,0.00,VWS V14.01,2013-04-10 07:35:00,
2013-04-10 02:36:00,73.4,70.6,29.62,SE,133,15.0,17.0,91,0.00,,---,0.00,VWS V14.01,2013-04-10 07:36:00,
2013-04-10 02:37:00,73.4,70.6,29.62,SE,137,13.0,16.0,91,0.00,,---,0.00,VWS V14.01,2013-04-10 07:37:00,
2013-04-10 02:38:00,73.4,70.6,29.63,SSE,165,13.0,17.0,91,0.00,,---,0.00,VWS V14.01,2013-04-10 07:38:00,
2013-04-10 02:39:00,73.4,70.6,29.62,SE,144,23.0,23.0,91,0.00,,---,0.00,VWS V14.01,2013-04-10 07:39:00,
2013-04-10 02:40:00,73.4,70.6,29.62,South,179,13.0,18.0,91,0.00,,---,0.00,VWS V14.01,2013-04-10 07:40:00,
2013-04-10 02:41:00,73.4,70.6,29.62,SE,139,11.0,21.0,91,0.00,,---,0.00,VWS V14.01,2013-04-10 07:41:00,
2013-04-10 02:42:00,73.4,70.6,29.62,SE,134,9.0,17.0,91,0.00,,---,0.00,VWS V14.01,2013-04-10 07:42:00,
2013-04-10 02:43:00,73.4,70.6,29.62,SE,139,13.0,18.0,91,0.00,,---,0.00,VWS V14.01,2013-04-10 07:43:00,
2013-04-10 02:44:00,73.4,70.6,29.62,SSE,153,23.0,23.0,91,0.00,,---,0.00,VWS V14.01,2013-04-10 07:44:00,
2013-04-10 02:45:00,73.4,70.6,29.62,SSE,155,13.0,22.0,91,0.00,,---,0.00,VWS V14.01,2013-04-10 07:45:00,
2013-04-10 02:46:00,73.4,70.6,29.62,ESE,121,11.0,18.0,91,0.00,,---,0.00,VWS V14.01,2013-04-10 07:46:00,
2013-04-10 02:47:00,73.4,70.6,29.62,ESE,106,9.0,18.0,91,0.00,,---,0.00,VWS V14.01,2013-04-10 07:47:00,
2013-04-10 02:48:00,73.4,70.6,29.62,South,170,8.0,16.0,91,0.00,,---,0.00,VWS V14.01,2013-04-10 07:48:00,
2013-04-10 02:49:00,73.4,70.6,29.62,ESE,118,12.0,24.0,91,0.00,,---,0.00,VWS V14.01,2013-04-10 07:49:00,
2013-04-10 02:50:00,73.4,70.6,29.62,SSE,160,16.0,17.0,91,0.00,,---,0.00,VWS V14.01,2013-04-10 07:50:00,
2013-04-10 02:51:00,73.4,70.6,29.62,SSE,162,17.0,17.0,91,0.00,,---,0.00,VWS V14.01,2013-04-10 07:51:00,
2013-04-10 02:52:00,73.4,70.6,29.62,SSE,150,18.0,21.0,91,0.00,,---,0.00,VWS V14.01,2013-04-10 07:52:00,
2013-04-10 02:53:00,73.4,70.6,29.62,SE,134,14.0,18.0,91,0.00,,---,0.00,VWS V14.01,2013-04-10 07:53:00,
2013-04-10 02:54:00,73.4,70.6,29.62,SE,136,10.0,14.0,91,0.00,,---,0.00,VWS V14.01,2013-04-10 07:54:00,
2013-04-10 02:55:00,73.4,70.6,29.62,SE,139,17.0,22.0,91,0.00,,---,0.00,VWS V14.01,2013-04-10 07:55:00,
2013-04-10 02:56:00,73.4,70.6,29.62,SSE,148,9.0,17.0,91,0.00,,---,0.00,VWS V14.01,2013-04-10 07:56:00,
2013-04-10 02:57:00,73.4,70.6,29.62,SSE,152,22.0,22.0,91,0.00,,---,0.00,VWS V14.01,2013-04-10 07:57:00,
2013-04-10 02:58:00,73.4,70.6,29.61,SSE,156,12.0,22.0,91,0.00,,---,0.00,VWS V14.01,2013-04-10 07:58:00,
2013-04-10 02:59:00,73.4,70.6,29.61,SSE,154,6.0,12.0,91,0.00,,---,0.00,VWS V14.01,2013-04-10 07:59:00,
2013-04-10 03:00:00,73.4,70.6,29.61,SE,132,7.0,17.0,91,0.00,,---,0.00,VWS V14.01,2013-04-10 08:00:00,
2013-04-10 03:01:00,73.3,70.5,29.61,SSE,147,16.0,16.0,91,0.00,,---,0.00,VWS V14.01,2013-04-10 08:01:00,
2013-04-10 03:02:00,73.3,70.5,29.61,SSE,166,14.0,20.0,91,0.00,,---,0.00,VWS V14.01,2013-04-10 08:02:00,
2013-04-10 03:03:00,73.3,70.5,29.61,SSE,159,10.0,20.0,91,0.00,,---,0.00,VWS V14.01,2013-04-10 08:03:00,
2013-04-10 03:04:00,73.3,70.5,29.61,SE,139,14.0,15.0,91,0.00,,---,0.00,VWS V14.01,2013-04-10 08:04:00,
2013-04-10 03:05:00,73.3,70.5,29.61,SSE,149,16.0,19.0,91,0.00,,---,0.00,VWS V14.01,2013-04-10 08:05:00,
2013-04-10 03:06:00,73.3,70.5,29.61,SSE,163,17.0,20.0,91,0.00,,---,0.00,VWS V14.01,2013-04-10 08:06:00,
2013-04-10 03:07:00,73.3,70.5,29.61,SSE,164,11.0,21.0,91,0.00,,---,0.00,VWS V14.01,2013-04-10 08:07:00,
2013-04-10 03:08:00,73.3,70.5,29.61,SE,126,13.0,17.0,91,0.00,,---,0.00,VWS V14.01,2013-04-10 08:08:00,
2013-04-10 03:09:00,73.3,70.5,29.61,SE,132,13.0,17.0,91,0.00,,---,0.00,VWS V14.01,2013-04-10 08:09:00,
2013-04-10 03:10:00,73.3,70.5,29.61,SE,138,11.0,21.0,91,0.00,,---,0.00,VWS V14.01,2013-04-10 08:10:00,
2013-04-10 03:11:00,73.3,70.5,29.61,SE,136,15.0,20.0,91,0.00,,---,0.00,VWS V14.01,2013-04-10 08:11:00,
2013-04-10 03:12:00,73.2,70.4,29.61,SE,145,11.0,17.0,91,0.00,,---,0.00,VWS V14.01,2013-04-10 08:12:00,
2013-04-10 03:13:00,73.3,70.5,29.61,SE,132,13.0,13.0,91,0.00,,---,0.00,VWS V14.01,2013-04-10 08:13:00,
2013-04-10 03:14:00,73.3,70.5,29.61,ESE,122,19.0,19.0,91,0.00,,---,0.00,VWS V14.01,2013-04-10 08:14:00,
2013-04-10 03:15:00,73.3,70.5,29.61,SSE,163,13.0,20.0,91,0.00,,---,0.00,VWS V14.01,2013-04-10 08:15:00,
2013-04-10 03:16:00,73.3,70.5,29.61,SE,130,17.0,22.0,91,0.00,,---,0.00,VWS V14.01,2013-04-10 08:16:00,
2013-04-10 03:17:00,73.3,70.5,29.61,SSE,149,14.0,19.0,91,0.00,,---,0.00,VWS V14.01,2013-04-10 08:17:00,
2013-04-10 03:18:00,73.3,70.5,29.61,SE,132,14.0,17.0,91,0.00,,---,0.00,VWS V14.01,2013-04-10 08:18:00,
2013-04-10 03:19:00,73.3,70.5,29.60,SE,132,14.0,14.0,91,0.00,,---,0.00,VWS V14.01,2013-04-10 08:19:00,
2013-04-10 03:20:00,73.3,70.5,29.61,SE,142,15.0,23.0,91,0.00,,---,0.00,VWS V14.01,2013-04-10 08:20:00,
2013-04-10 03:21:00,73.4,70.6,29.61,SSE,165,12.0,19.0,91,0.00,,---,0.00,VWS V14.01,2013-04-10 08:21:00,
2013-04-10 03:22:00,73.3,70.5,29.61,SSE,147,19.0,23.0,91,0.00,,---,0.00,VWS V14.01,2013-04-10 08:22:00,
2013-04-10 03:23:00,73.3,70.5,29.61,SSE,157,13.0,19.0,91,0.00,,---,0.00,VWS V14.01,2013-04-10 08:23:00,
2013-04-10 03:24:00,73.3,70.5,29.60,SSE,149,14.0,17.0,91,0.00,,---,0.00,VWS V14.01,2013-04-10 08:24:00,
2013-04-10 03:25:00,73.3,70.5,29.61,SE,136,13.0,20.0,91,0.00,,---,0.00,VWS V14.01,2013-04-10 08:25:00,
2013-04-10 03:26:00,73.3,70.5,29.60,SSE,155,14.0,15.0,91,0.00,,---,0.00,VWS V14.01,2013-04-10 08:26:00,
2013-04-10 03:27:00,73.3,70.5,29.60,South,173,18.0,18.0,91,0.00,,---,0.00,VWS V14.01,2013-04-10 08:27:00,
2013-04-10 03:28:00,73.3,70.5,29.61,SSE,152,14.0,22.0,91,0.00,,---,0.00,VWS V14.01,2013-04-10 08:28:00,
2013-04-10 03:29:00,73.3,70.5,29.60,SE,140,23.0,23.0,91,0.00,,---,0.00,VWS V14.01,2013-04-10 08:29:00,
2013-04-10 03:30:00,73.3,70.5,29.60,South,170,20.0,20.0,91,0.00,,---,0.00,VWS V14.01,2013-04-10 08:30:00,
2013-04-10 03:31:00,73.2,70.4,29.60,SE,126,11.0,22.0,91,0.00,,---,0.00,VWS V14.01,2013-04-10 08:31:00,
2013-04-10 03:32:00,73.2,70.4,29.60,SE,146,19.0,19.0,91,0.00,,---,0.00,VWS V14.01,2013-04-10 08:32:00,
2013-04-10 03:33:00,73.2,70.4,29.60,SE,138,14.0,19.0,91,0.00,,---,0.00,VWS V14.01,2013-04-10 08:33:00,
2013-04-10 03:34:00,73.2,70.4,29.60,South,173,13.0,18.0,91,0.00,,---,0.00,VWS V14.01,2013-04-10 08:34:00,
2013-04-10 03:35:00,73.1,70.3,29.60,SE,132,12.0,16.0,91,0.00,,---,0.00,VWS V14.01,2013-04-10 08:35:00,
2013-04-10 03:36:00,73.1,70.3,29.60,SE,126,11.0,17.0,91,0.00,,---,0.00,VWS V14.01,2013-04-10 08:36:00,
2013-04-10 03:37:00,73.1,70.3,29.60,ESE,110,11.0,19.0,91,0.00,,---,0.00,VWS V14.01,2013-04-10 08:37:00,
2013-04-10 03:38:00,73.1,70.3,29.60,SE,139,20.0,20.0,91,0.00,,---,0.00,VWS V14.01,2013-04-10 08:38:00,
2013-04-10 03:39:00,73.1,70.3,29.60,South,171,16.0,20.0,91,0.00,,---,0.00,VWS V14.01,2013-04-10 08:39:00,
2013-04-10 03:40:00,73.0,70.2,29.60,SE,144,21.0,21.0,91,0.00,,---,0.00,VWS V14.01,2013-04-10 08:40:00,
2013-04-10 03:41:00,73.0,70.2,29.60,SSE,148,12.0,21.0,91,0.00,,---,0.00,VWS V14.01,2013-04-10 08:41:00,
2013-04-10 03:42:00,73.0,70.2,29.60,South,181,15.0,18.0,91,0.00,,---,0.00,VWS V14.01,2013-04-10 08:42:00,
2013-04-10 03:43:00,73.0,70.2,29.60,South,172,13.0,23.0,91,0.00,,---,0.00,VWS V14.01,2013-04-10 08:43:00,
2013-04-10 03:44:00,73.0,70.2,29.60,SSE,160,13.0,16.0,91,0.00,,---,0.00,VWS V14.01,2013-04-10 08:44:00,
2013-04-10 03:45:00,73.0,70.2,29.60,ESE,117,18.0,20.0,91,0.00,,---,0.00,VWS V14.01,2013-04-10 08:45:00,
2013-04-10 03:46:00,73.0,70.2,29.60,SSE,167,13.0,19.0,91,0.00,,---,0.00,VWS V14.01,2013-04-10 08:46:00,
2013-04-10 03:47:00,72.9,70.1,29.60,SE,129,17.0,19.0,91,0.00,,---,0.00,VWS V14.01,2013-04-10 08:47:00,
2013-04-10 03:48:00,72.9,70.1,29.60,SSE,157,20.0,21.0,91,0.00,,---,0.00,VWS V14.01,2013-04-10 08:48:00,
2013-04-10 03:49:00,72.9,70.4,29.60,SSE,157,14.0,20.0,92,0.00,,---,0.00,VWS V14.01,2013-04-10 08:49:00,
2013-04-10 03:51:00,72.9,70.4,29.59,SSE,148,13.0,14.0,92,0.00,,---,0.00,VWS V14.01,2013-04-10 08:51:00,
2013-04-10 03:52:00,72.9,70.4,29.59,SSE,157,12.0,19.0,92,0.00,,---,0.00,VWS V14.01,2013-04-10 08:52:00,
2013-04-10 03:53:00,72.9,70.4,29.59,SE,124,12.0,16.0,92,0.00,,---,0.00,VWS V14.01,2013-04-10 08:53:00,
2013-04-10 03:54:00,72.8,70.3,29.59,ESE,121,14.0,14.0,92,0.00,,---,0.00,VWS V14.01,2013-04-10 08:54:00,
2013-04-10 03:55:00,72.9,70.4,29.59,ESE,121,12.0,20.0,92,0.00,,---,0.00,VWS V14.01,2013-04-10 08:55:00,
2013-04-10 03:56:00,72.8,70.3,29.59,SE,138,22.0,22.0,92,0.00,,---,0.00,VWS V14.01,2013-04-10 08:56:00,
2013-04-10 03:57:00,72.8,70.3,29.59,SSE,151,14.0,22.0,92,0.00,,---,0.00,VWS V14.01,2013-04-10 08:57:00,
2013-04-10 03:58:00,72.8,70.3,29.59,SE,142,14.0,24.0,92,0.00,,---,0.00,VWS V14.01,2013-04-10 08:58:00,
2013-04-10 03:59:00,72.8,70.3,29.59,South,171,11.0,16.0,92,0.00,,---,0.00,VWS V14.01,2013-04-10 08:59:00,
2013-04-10 04:00:00,72.8,70.3,29.59,SSE,153,12.0,22.0,92,0.00,,---,0.00,VWS V14.01,2013-04-10 09:00:00,
2013-04-10 04:01:00,72.8,70.3,29.58,SE,146,16.0,21.0,92,0.00,,---,0.00,VWS V14.01,2013-04-10 09:01:00,
2013-04-10 04:02:00,72.8,70.3,29.58,SSE,155,7.0,23.0,92,0.00,,---,0.00,VWS V14.01,2013-04-10 09:02:00,
2013-04-10 04:03:00,72.8,70.3,29.58,SE,146,18.0,19.0,92,0.00,,---,0.00,VWS V14.01,2013-04-10 09:03:00,
2013-04-10 04:04:00,72.8,70.3,29.58,SE,144,18.0,18.0,92,0.00,,---,0.00,VWS V14.01,2013-04-10 09:04:00,
2013-04-10 04:05:00,72.7,70.2,29.58,SE,140,11.0,20.0,92,0.00,,---,0.00,VWS V14.01,2013-04-10 09:05:00,
2013-04-10 04:06:00,72.7,70.2,29.58,SSE,149,11.0,19.0,92,0.00,,---,0.00,VWS V14.01,2013-04-10 09:06:00,
2013-04-10 04:07:00,72.7,70.2,29.58,SSE,148,15.0,22.0,92,0.00,,---,0.00,VWS V14.01,2013-04-10 09:07:00,
2013-04-10 04:08:00,72.7,70.2,29.58,SE,145,7.0,17.0,92,0.00,,---,0.00,VWS V14.01,2013-04-10 09:08:00,
2013-04-10 04:09:00,72.7,70.2,29.58,SSE,163,12.0,14.0,92,0.00,,---,0.00,VWS V14.01,2013-04-10 09:09:00,
2013-04-10 04:10:00,72.7,70.2,29.58,SE,130,10.0,19.0,92,0.00,,---,0.00,VWS V14.01,2013-04-10 09:10:00,
2013-04-10 04:11:00,72.7,70.2,29.58,SE,138,10.0,18.0,92,0.00,,---,0.00,VWS V14.01,2013-04-10 09:11:00,
2013-04-10 04:12:00,72.6,70.2,29.58,SSE,164,15.0,19.0,92,0.00,,---,0.00,VWS V14.01,2013-04-10 09:12:00,
2013-04-10 04:13:00,72.7,70.2,29.58,SE,134,16.0,21.0,92,0.00,,---,0.00,VWS V14.01,2013-04-10 09:13:00,
2013-04-10 04:14:00,72.7,70.2,29.58,SE,135,12.0,16.0,92,0.00,,---,0.00,VWS V14.01,2013-04-10 09:14:00,
2013-04-10 04:15:00,72.7,70.2,29.58,SE,144,18.0,22.0,92,0.00,,---,0.00,VWS V14.01,2013-04-10 09:15:00,
2013-04-10 04:16:00,72.7,70.2,29.58,SE,138,13.0,22.0,92,0.00,,---,0.00,VWS V14.01,2013-04-10 09:16:00,
2013-04-10 04:17:00,72.7,70.2,29.58,SE,146,18.0,22.0,92,0.00,,---,0.00,VWS V14.01,2013-04-10 09:17:00,
2013-04-10 04:18:00,72.7,70.2,29.58,SSE,151,14.0,20.0,92,0.00,,---,0.00,VWS V14.01,2013-04-10 09:18:00,
2013-04-10 04:19:00,72.7,70.2,29.58,ESE,109,10.0,22.0,92,0.00,,---,0.00,VWS V14.01,2013-04-10 09:19:00,
2013-04-10 04:20:00,72.7,70.2,29.58,SE,134,16.0,21.0,92,0.00,,---,0.00,VWS V14.01,2013-04-10 09:20:00,
2013-04-10 04:21:00,72.7,70.2,29.58,SE,142,12.0,19.0,92,0.00,,---,0.00,VWS V14.01,2013-04-10 09:21:00,
2013-04-10 04:22:00,72.6,70.2,29.58,SE,140,16.0,23.0,92,0.00,,---,0.00,VWS V14.01,2013-04-10 09:22:00,
2013-04-10 04:23:00,72.6,70.2,29.58,ESE,122,10.0,18.0,92,0.00,,---,0.00,VWS V14.01,2013-04-10 09:23:00,
2013-04-10 04:24:00,72.6,70.2,29.58,ESE,117,18.0,19.0,92,0.00,,---,0.00,VWS V14.01,2013-04-10 09:24:00,
2013-04-10 04:25:00,72.6,70.2,29.58,SE,138,17.0,19.0,92,0.00,,---,0.00,VWS V14.01,2013-04-10 09:25:00,
2013-04-10 04:26:00,72.6,70.2,29.58,SE,142,10.0,17.0,92,0.00,,---,0.00,VWS V14.01,2013-04-10 09:26:00,
2013-04-10 04:27:00,72.6,70.2,29.58,SE,138,5.0,15.0,92,0.00,,---,0.00,VWS V14.01,2013-04-10 09:27:00,
2013-04-10 04:28:00,72.6,70.2,29.58,SE,141,13.0,15.0,92,0.00,,---,0.00,VWS V14.01,2013-04-10 09:28:00,
2013-04-10 04:29:00,72.6,70.2,29.58,SSE,160,11.0,15.0,92,0.00,,---,0.00,VWS V14.01,2013-04-10 09:29:00,
2013-04-10 04:30:00,72.6,70.2,29.58,SSE,157,14.0,19.0,92,0.00,,---,0.00,VWS V14.01,2013-04-10 09:30:00,
2013-04-10 04:31:00,72.6,70.2,29.58,SSE,155,12.0,16.0,92,0.00,,---,0.00,VWS V14.01,2013-04-10 09:31:00,
2013-04-10 04:32:00,72.6,70.2,29.58,ESE,105,14.0,20.0,92,0.00,,---,0.00,VWS V14.01,2013-04-10 09:32:00,
2013-04-10 04:33:00,72.6,70.2,29.58,SE,136,14.0,20.0,92,0.00,,---,0.00,VWS V14.01,2013-04-10 09:33:00,
2013-04-10 04:34:00,72.6,70.2,29.58,SSE,150,12.0,15.0,92,0.00,,---,0.00,VWS V14.01,2013-04-10 09:34:00,
2013-04-10 04:35:00,72.6,70.2,29.58,SE,145,13.0,22.0,92,0.00,,---,0.00,VWS V14.01,2013-04-10 09:35:00,
2013-04-10 04:36:00,72.6,70.2,29.58,SSE,149,9.0,19.0,92,0.00,,---,0.00,VWS V14.01,2013-04-10 09:36:00,
2013-04-10 04:37:00,72.6,70.2,29.58,SE,140,15.0,21.0,92,0.00,,---,0.00,VWS V14.01,2013-04-10 09:37:00,
2013-04-10 04:38:00,72.6,70.2,29.58,SE,129,5.0,16.0,92,0.00,,---,0.00,VWS V14.01,2013-04-10 09:38:00,
2013-04-10 04:39:00,72.6,70.2,29.59,SSE,156,6.0,6.0,92,0.00,,---,0.00,VWS V14.01,2013-04-10 09:39:00,
2013-04-10 04:40:00,72.6,70.2,29.59,SE,133,19.0,19.0,92,0.00,,---,0.00,VWS V14.01,2013-04-10 09:40:00,
2013-04-10 04:41:00,72.6,70.2,29.58,ESE,121,15.0,19.0,92,0.00,,---,0.00,VWS V14.01,2013-04-10 09:41:00,
2013-04-10 04:42:00,72.6,70.2,29.58,SSE,156,16.0,16.0,92,0.00,,---,0.00,VWS V14.01,2013-04-10 09:42:00,
2013-04-10 04:43:00,72.6,70.2,29.58,SE,134,14.0,17.0,92,0.00,,---,0.00,VWS V14.01,2013-04-10 09:43:00,
2013-04-10 04:44:00,72.6,70.2,29.58,SE,139,15.0,15.0,92,0.00,,---,0.00,VWS V14.01,2013-04-10 09:44:00,
2013-04-10 04:45:00,72.6,70.2,29.58,SE,144,16.0,16.0,92,0.00,,---,0.00,VWS V14.01,2013-04-10 09:45:00,
2013-04-10 04:46:00,72.6,70.2,29.58,SSE,156,14.0,16.0,92,0.00,,---,0.00,VWS V14.01,2013-04-10 09:46:00,
2013-04-10 04:47:00,72.5,70.1,29.58,ESE,107,5.0,14.0,92,0.00,,---,0.00,VWS V14.01,2013-04-10 09:47:00,
2013-04-10 04:48:00,72.5,70.1,29.58,SSE,153,13.0,19.0,92,0.00,,---,0.00,VWS V14.01,2013-04-10 09:48:00,
2013-04-10 04:49:00,72.5,70.1,29.58,SSE,148,14.0,17.0,92,0.00,,---,0.00,VWS V14.01,2013-04-10 09:49:00,
2013-04-10 04:50:00,72.5,70.1,29.58,SE,132,7.0,18.0,92,0.00,,---,0.00,VWS V14.01,2013-04-10 09:50:00,
2013-04-10 04:51:00,72.5,70.1,29.58,SE,135,14.0,15.0,92,0.00,,---,0.00,VWS V14.01,2013-04-10 09:51:00,
2013-04-10 04:52:00,72.5,70.1,29.58,SSE,161,16.0,20.0,92,0.00,,---,0.00,VWS V14.01,2013-04-10 09:52:00,
2013-04-10 04:53:00,72.5,70.1,29.58,ESE,121,8.0,18.0,92,0.00,,---,0.00,VWS V14.01,2013-04-10 09:53:00,
2013-04-10 04:54:00,72.5,70.1,29.58,SE,128,14.0,15.0,92,0.00,,---,0.00,VWS V14.01,2013-04-10 09:54:00,
2013-04-10 04:55:00,72.5,70.1,29.58,SE,128,10.0,16.0,92,0.00,,---,0.00,VWS V14.01,2013-04-10 09:55:00,
2013-04-10 04:56:00,72.5,70.1,29.58,SE,136,11.0,19.0,92,0.00,,---,0.00,VWS V14.01,2013-04-10 09:56:00,
2013-04-10 04:57:00,72.6,70.2,29.58,SSE,157,14.0,19.0,92,0.00,,---,0.00,VWS V14.01,2013-04-10 09:57:00,
2013-04-10 04:58:00,72.6,70.2,29.58,ESE,122,9.0,14.0,92,0.00,,---,0.00,VWS V14.01,2013-04-10 09:58:00,
2013-04-10 04:59:00,72.6,70.2,29.58,ESE,113,6.0,9.0,92,0.00,,---,0.00,VWS V14.01,2013-04-10 09:59:00,
2013-04-10 05:00:00,72.6,70.2,29.58,SE,141,13.0,14.0,92,0.00,,---,0.00,VWS V14.01,2013-04-10 10:00:00,
2013-04-10 05:01:00,72.6,70.2,29.58,SE,125,13.0,19.0,92,0.00,,---,0.00,VWS V14.01,2013-04-10 10:01:00,
2013-04-10 05:02:00,72.6,70.2,29.58,SSE,148,7.0,16.0,92,0.00,,---,0.00,VWS V14.01,2013-04-10 10:02:00,
2013-04-10 05:03:00,72.6,70.2,29.58,SSE,150,14.0,18.0,92,0.00,,---,0.00,VWS V14.01,2013-04-10 10:03:00,
2013-04-10 05:04:00,72.6,70.2,29.58,ESE,112,10.0,16.0,92,0.00,,---,0.00,VWS V14.01,2013-04-10 10:04:00,
2013-04-10 05:05:00,72.6,70.2,29.58,ESE,111,10.0,15.0,92,0.00,,---,0.00,VWS V14.01,2013-04-10 10:05:00,
2013-04-10 05:06:00,72.6,70.2,29.58,SE,145,6.0,17.0,92,0.00,,---,0.00,VWS V14.01,2013-04-10 10:06:00,
2013-04-10 05:07:00,72.6,70.2,29.58,SE,137,12.0,15.0,92,0.00,,---,0.00,VWS V14.01,2013-04-10 10:07:00,
2013-04-10 05:08:00,72.6,70.2,29.58,SE,145,7.0,15.0,92,0.00,,---,0.00,VWS V14.01,2013-04-10 10:08:00,
2013-04-10 05:09:00,72.6,70.2,29.58,SE,138,8.0,8.0,92,0.00,,---,0.00,VWS V14.01,2013-04-10 10:09:00,
2013-04-10 05:10:00,72.6,70.2,29.58,ESE,111,7.0,13.0,92,0.00,,---,0.00,VWS V14.01,2013-04-10 10:10:00,
2013-04-10 05:11:00,72.6,70.2,29.58,ESE,111,12.0,18.0,92,0.00,,---,0.00,VWS V14.01,2013-04-10 10:11:00,
2013-04-10 05:12:00,72.6,70.2,29.58,SE,130,7.0,17.0,92,0.00,,---,0.00,VWS V14.01,2013-04-10 10:12:00,
2013-04-10 05:13:00,72.6,70.2,29.58,SSE,150,15.0,15.0,92,0.00,,---,0.00,VWS V14.01,2013-04-10 10:13:00,
2013-04-10 05:14:00,72.6,70.2,29.58,ESE,111,17.0,17.0,92,0.00,,---,0.00,VWS V14.01,2013-04-10 10:14:00,
2013-04-10 05:15:00,72.6,70.2,29.58,ESE,123,14.0,14.0,92,0.00,,---,0.00,VWS V14.01,2013-04-10 10:15:00,
2013-04-10 05:16:00,72.6,70.2,29.58,ESE,113,19.0,19.0,92,0.00,,---,0.00,VWS V14.01,2013-04-10 10:16:00,
2013-04-10 05:17:00,72.6,70.2,29.58,SE,130,11.0,19.0,92,0.00,,---,0.00,VWS V14.01,2013-04-10 10:17:00,
2013-04-10 05:18:00,72.6,70.2,29.58,SE,135,12.0,15.0,92,0.00,,---,0.00,VWS V14.01,2013-04-10 10:18:00,
2013-04-10 05:19:00,72.6,70.2,29.58,SE,146,10.0,12.0,92,0.00,,---,0.00,VWS V14.01,2013-04-10 10:19:00,
2013-04-10 05:20:00,72.6,70.2,29.58,SE,146,15.0,15.0,92,0.00,,---,0.00,VWS V14.01,2013-04-10 10:20:00,
2013-04-10 05:21:00,72.6,70.2,29.58,SE,132,13.0,19.0,92,0.00,,---,0.00,VWS V14.01,2013-04-10 10:21:00,
2013-04-10 05:22:00,72.6,70.2,29.58,SE,129,11.0,13.0,92,0.00,,---,0.00,VWS V14.01,2013-04-10 10:22:00,
2013-04-10 05:23:00,72.6,70.2,29.58,SSE,152,10.0,16.0,92,0.00,,---,0.00,VWS V14.01,2013-04-10 10:23:00,
2013-04-10 05:24:00,72.6,70.2,29.58,ESE,115,15.0,15.0,92,0.00,,---,0.00,VWS V14.01,2013-04-10 10:24:00,
2013-04-10 05:25:00,72.6,70.2,29.58,ESE,107,10.0,14.0,92,0.00,,---,0.00,VWS V14.01,2013-04-10 10:25:00,
2013-04-10 05:26:00,72.6,70.2,29.58,SE,144,14.0,17.0,92,0.00,,---,0.00,VWS V14.01,2013-04-10 10:26:00,
2013-04-10 05:27:00,72.7,70.2,29.58,ESE,118,16.0,18.0,92,0.00,,---,0.00,VWS V14.01,2013-04-10 10:27:00,
2013-04-10 05:28:00,72.6,70.2,29.58,ESE,114,9.0,16.0,92,0.00,,---,0.00,VWS V14.01,2013-04-10 10:28:00,
2013-04-10 05:29:00,72.7,70.2,29.58,ESE,118,10.0,10.0,92,0.00,,---,0.00,VWS V14.01,2013-04-10 10:29:00,
2013-04-10 05:30:00,72.6,70.2,29.58,ESE,122,13.0,15.0,92,0.00,,---,0.00,VWS V14.01,2013-04-10 10:30:00,
2013-04-10 05:31:00,72.6,70.2,29.58,SE,132,10.0,17.0,92,0.00,,---,0.00,VWS V14.01,2013-04-10 10:31:00,
2013-04-10 05:32:00,72.6,70.2,29.58,SE,127,11.0,16.0,92,0.00,,---,0.00,VWS V14.01,2013-04-10 10:32:00,
2013-04-10 05:33:00,72.6,70.2,29.58,SE,128,8.0,11.0,92,0.00,,---,0.00,VWS V14.01,2013-04-10 10:33:00,
2013-04-10 05:34:00,72.6,70.2,29.58,East,99,6.0,8.0,92,0.00,,---,0.00,VWS V14.01,2013-04-10 10:34:00,
2013-04-10 05:35:00,72.6,70.5,29.58,SSE,149,16.0,16.0,93,0.00,,---,0.00,VWS V14.01,2013-04-10 10:35:00,
2013-04-10 05:36:00,72.6,70.5,29.58,ESE,119,13.0,19.0,93,0.00,,---,0.00,VWS V14.01,2013-04-10 10:36:00,
2013-04-10 05:37:00,72.6,70.5,29.58,ESE,115,8.0,16.0,93,0.00,,---,0.00,VWS V14.01,2013-04-10 10:37:00,
2013-04-10 05:38:00,72.6,70.5,29.58,SE,131,10.0,10.0,93,0.00,,---,0.00,VWS V14.01,2013-04-10 10:38:00,
2013-04-10 05:39:00,72.6,70.5,29.58,SE,138,11.0,11.0,93,0.00,,---,0.00,VWS V14.01,2013-04-10 10:39:00,
2013-04-10 05:40:00,72.6,70.5,29.58,SE,133,12.0,13.0,93,0.00,,---,0.00,VWS V14.01,2013-04-10 10:40:00,
2013-04-10 05:41:00,72.6,70.5,29.58,ESE,118,14.0,16.0,93,0.00,,---,0.00,VWS V14.01,2013-04-10 10:41:00,
2013-04-10 05:42:00,72.6,70.5,29.58,ESE,113,13.0,14.0,93,0.00,,---,0.00,VWS V14.01,2013-04-10 10:42:00,
2013-04-10 05:43:00,72.6,70.5,29.58,ESE,120,12.0,14.0,93,0.00,,---,0.00,VWS V14.01,2013-04-10 10:43:00,
2013-04-10 05:44:00,72.5,70.4,29.58,SE,128,13.0,13.0,93,0.00,,---,0.00,VWS V14.01,2013-04-10 10:44:00,
2013-04-10 05:45:00,72.6,70.5,29.58,ESE,106,13.0,17.0,93,0.00,,---,0.00,VWS V14.01,2013-04-10 10:45:00,
2013-04-10 05:46:00,72.5,70.4,29.58,SE,126,13.0,15.0,93,0.00,,---,0.00,VWS V14.01,2013-04-10 10:46:00,
2013-04-10 05:47:00,72.5,70.4,29.58,ESE,117,5.0,14.0,93,0.00,,---,0.00,VWS V14.01,2013-04-10 10:47:00,
2013-04-10 05:48:00,72.5,70.4,29.58,SE,136,9.0,14.0,93,0.00,,---,0.00,VWS V14.01,2013-04-10 10:48:00,
2013-04-10 05:49:00,72.5,70.4,29.58,ESE,109,10.0,15.0,93,0.00,,---,0.00,VWS V14.01,2013-04-10 10:49:00,
2013-04-10 05:50:00,72.5,70.4,29.58,SE,133,10.0,16.0,93,0.00,,---,0.00,VWS V14.01,2013-04-10 10:50:00,
2013-04-10 05:51:00,72.5,70.4,29.58,East,96,10.0,13.0,93,0.00,,---,0.00,VWS V14.01,2013-04-10 10:51:00,
2013-04-10 05:52:00,72.5,70.4,29.58,SSE,149,6.0,10.0,93,0.00,,---,0.00,VWS V14.01,2013-04-10 10:52:00,
2013-04-10 05:53:00,72.5,70.4,29.58,SSE,156,10.0,12.0,93,0.00,,---,0.00,VWS V14.01,2013-04-10 10:53:00,
2013-04-10 05:54:00,72.5,70.4,29.59,South,173,7.0,10.0,93,0.00,,---,0.00,VWS V14.01,2013-04-10 10:54:00,
2013-04-10 05:55:00,72.5,70.4,29.59,SSE,147,16.0,16.0,93,0.00,,---,0.00,VWS V14.01,2013-04-10 10:55:00,
2013-04-10 05:56:00,72.5,70.4,29.58,ESE,110,9.0,16.0,93,0.00,,---,0.00,VWS V14.01,2013-04-10 10:56:00,
2013-04-10 05:57:00,72.5,70.4,29.59,SSE,150,12.0,16.0,93,0.00,,---,0.00,VWS V14.01,2013-04-10 10:57:00,
2013-04-10 05:58:00,72.5,70.4,29.59,SE,126,6.0,13.0,93,0.00,,---,0.00,VWS V14.01,2013-04-10 10:58:00,
2013-04-10 05:59:00,72.5,70.4,29.59,SE,136,6.0,11.0,93,0.00,,---,0.00,VWS V14.01,2013-04-10 10:59:00,
2013-04-10 06:00:00,72.5,70.4,29.59,SE,146,13.0,13.0,93,0.00,,---,0.00,VWS V14.01,2013-04-10 11:00:00,
2013-04-10 06:01:00,72.5,70.4,29.59,SE,132,13.0,18.0,93,0.00,,---,0.00,VWS V14.01,2013-04-10 11:01:00,
2013-04-10 06:02:00,72.5,70.4,29.59,SE,128,13.0,15.0,93,0.00,,---,0.00,VWS V14.01,2013-04-10 11:02:00,
2013-04-10 06:03:00,72.5,70.4,29.59,SE,126,10.0,13.0,93,0.00,,---,0.00,VWS V14.01,2013-04-10 11:03:00,
2013-04-10 06:04:00,72.5,70.4,29.59,SSE,149,13.0,13.0,93,0.00,,---,0.00,VWS V14.01,2013-04-10 11:04:00,
2013-04-10 06:05:00,72.5,70.4,29.59,ESE,117,10.0,13.0,93,0.00,,---,0.00,VWS V14.01,2013-04-10 11:05:00,
2013-04-10 06:06:00,72.5,70.4,29.59,SE,142,9.0,16.0,93,0.00,,---,0.00,VWS V14.01,2013-04-10 11:06:00,
2013-04-10 06:07:00,72.4,70.3,29.59,SE,129,6.0,11.0,93,0.00,,---,0.00,VWS V14.01,2013-04-10 11:07:00,
2013-04-10 06:08:00,72.5,70.4,29.59,South,170,5.0,10.0,93,0.00,,---,0.00,VWS V14.01,2013-04-10 11:08:00,
2013-04-10 06:09:00,72.5,70.4,29.59,SE,138,9.0,10.0,93,0.00,,---,0.00,VWS V14.01,2013-04-10 11:09:00,
2013-04-10 06:10:00,72.4,70.3,29.59,SE,138,13.0,15.0,93,0.00,,---,0.00,VWS V14.01,2013-04-10 11:10:00,
2013-04-10 06:11:00,72.4,70.3,29.59,SE,134,10.0,17.0,93,0.00,,---,0.00,VWS V14.01,2013-04-10 11:11:00,
2013-04-10 06:12:00,72.4,70.3,29.59,SE,126,14.0,14.0,93,0.00,,---,0.00,VWS V14.01,2013-04-10 11:12:00,
2013-04-10 06:13:00,72.4,70.3,29.59,ESE,123,13.0,16.0,93,0.00,,---,0.00,VWS V14.01,2013-04-10 11:13:00,
2013-04-10 06:14:00,72.5,70.4,29.59,SE,133,13.0,13.0,93,0.00,,---,0.00,VWS V14.01,2013-04-10 11:14:00,
2013-04-10 06:15:00,72.5,70.4,29.59,SSE,148,10.0,16.0,93,0.00,,---,0.00,VWS V14.01,2013-04-10 11:15:00,
2013-04-10 06:16:00,72.5,70.4,29.59,SE,145,13.0,14.0,93,0.00,,---,0.00,VWS V14.01,2013-04-10 11:16:00,
2013-04-10 06:17:00,72.5,70.4,29.59,SE,132,11.0,15.0,93,0.00,,---,0.00,VWS V14.01,2013-04-10 11:17:00,
2013-04-10 06:18:00,72.5,70.4,29.59,SE,133,7.0,14.0,93,0.00,,---,0.00,VWS V14.01,2013-04-10 11:18:00,
2013-04-10 06:19:00,72.5,70.4,29.59,South,171,10.0,10.0,93,0.00,,---,0.00,VWS V14.01,2013-04-10 11:19:00,
2013-04-10 06:20:00,72.5,70.4,29.58,SE,138,15.0,16.0,93,0.00,,---,0.00,VWS V14.01,2013-04-10 11:20:00,
2013-04-10 06:21:00,72.5,70.4,29.59,SE,128,6.0,15.0,93,0.00,,---,0.00,VWS V14.01,2013-04-10 11:21:00,
2013-04-10 06:22:00,72.5,70.4,29.59,SE,140,9.0,10.0,93,0.00,,---,0.00,VWS V14.01,2013-04-10 11:22:00,
2013-04-10 06:23:00,72.5,70.4,29.59,South,177,7.0,14.0,93,0.00,,---,0.00,VWS V14.01,2013-04-10 11:23:00,
2013-04-10 06:24:00,72.5,70.4,29.59,SE,131,6.0,7.0,93,0.00,,---,0.00,VWS V14.01,2013-04-10 11:24:00,
2013-04-10 06:25:00,72.5,70.4,29.59,SE,143,6.0,11.0,93,0.00,,---,0.00,VWS V14.01,2013-04-10 11:25:00,
2013-04-10 06:26:00,72.5,70.4,29.58,SE,134,12.0,15.0,93,0.00,,---,0.00,VWS V14.01,2013-04-10 11:26:00,
2013-04-10 06:27:00,72.5,70.4,29.59,SE,139,8.0,15.0,93,0.00,,---,0.00,VWS V14.01,2013-04-10 11:27:00,
2013-04-10 06:28:00,72.5,70.4,29.58,SSE,157,9.0,14.0,93,0.00,,---,0.00,VWS V14.01,2013-04-10 11:28:00,
2013-04-10 06:29:00,72.5,70.4,29.59,SSE,153,7.0,9.0,93,0.00,,---,0.00,VWS V14.01,2013-04-10 11:29:00,
2013-04-10 06:30:00,72.5,70.4,29.59,SE,137,12.0,17.0,93,0.00,,---,0.00,VWS V14.01,2013-04-10 11:30:00,
2013-04-10 06:31:00,72.5,70.4,29.59,SE,137,11.0,14.0,93,0.00,,---,0.00,VWS V14.01,2013-04-10 11:31:00,
2013-04-10 06:32:00,72.5,70.4,29.59,SE,140,10.0,13.0,93,0.00,,---,0.00,VWS V14.01,2013-04-10 11:32:00,
2013-04-10 06:33:00,72.5,70.4,29.59,ESE,123,11.0,13.0,93,0.00,,---,0.00,VWS V14.01,2013-04-10 11:33:00,
2013-04-10 06:34:00,72.5,70.4,29.59,SSE,156,9.0,11.0,93,0.00,,---,0.00,VWS V14.01,2013-04-10 11:34:00,
2013-04-10 06:35:00,72.5,70.4,29.59,SE,141,11.0,15.0,93,0.00,,---,0.00,VWS V14.01,2013-04-10 11:35:00,
2013-04-10 06:36:00,72.5,70.4,29.59,SSE,155,8.0,13.0,93,0.00,,---,0.00,VWS V14.01,2013-04-10 11:36:00,
2013-04-10 06:37:00,72.5,70.4,29.59,SE,136,9.0,14.0,93,0.00,,---,0.00,VWS V14.01,2013-04-10 11:37:00,
2013-04-10 06:38:00,72.5,70.4,29.59,SE,145,7.0,15.0,93,0.00,,---,0.00,VWS V14.01,2013-04-10 11:38:00,
2013-04-10 06:39:00,72.5,70.4,29.59,SE,146,3.0,7.0,93,0.00,,---,0.00,VWS V14.01,2013-04-10 11:39:00,
2013-04-10 06:40:00,72.5,70.4,29.59,SE,132,13.0,15.0,93,0.00,,---,0.00,VWS V14.01,2013-04-10 11:40:00,
2013-04-10 06:41:00,72.6,70.5,29.59,SE,146,11.0,15.0,93,0.00,,---,0.00,VWS V14.01,2013-04-10 11:41:00,
2013-04-10 06:42:00,72.5,70.4,29.59,SE,143,5.0,11.0,93,0.00,,---,0.00,VWS V14.01,2013-04-10 11:42:00,
2013-04-10 06:43:00,72.6,70.5,29.59,ESE,113,14.0,14.0,93,0.00,,---,0.00,VWS V14.01,2013-04-10 11:43:00,
2013-04-10 06:44:00,72.6,70.5,29.59,ESE,104,16.0,16.0,93,0.00,,---,0.00,VWS V14.01,2013-04-10 11:44:00,
2013-04-10 06:45:00,72.6,70.5,29.59,SE,140,11.0,17.0,93,0.00,,---,0.00,VWS V14.01,2013-04-10 11:45:00,
2013-04-10 06:46:00,72.6,70.5,29.59,SE,135,11.0,14.0,93,0.00,,---,0.00,VWS V14.01,2013-04-10 11:46:00,
2013-04-10 06:47:00,72.6,70.5,29.59,SSE,148,13.0,14.0,93,0.00,,---,0.00,VWS V14.01,2013-04-10 11:47:00,
2013-04-10 06:48:00,72.6,70.5,29.59,SE,144,11.0,15.0,93,0.00,,---,0.00,VWS V14.01,2013-04-10 11:48:00,
2013-04-10 06:49:00,72.6,70.5,29.59,SE,131,6.0,11.0,93,0.00,,---,0.00,VWS V14.01,2013-04-10 11:49:00,
2013-04-10 06:50:00,72.6,70.5,29.59,SE,146,10.0,12.0,93,0.00,,---,0.00,VWS V14.01,2013-04-10 11:50:00,
2013-04-10 06:51:00,72.6,70.5,29.59,SE,142,17.0,17.0,93,0.00,,---,0.00,VWS V14.01,2013-04-10 11:51:00,
2013-04-10 06:52:00,72.6,70.5,29.59,SE,138,13.0,17.0,93,0.00,,---,0.00,VWS V14.01,2013-04-10 11:52:00,
2013-04-10 06:53:00,72.7,70.6,29.59,SE,144,11.0,15.0,93,0.00,,---,0.00,VWS V14.01,2013-04-10 11:53:00,
2013-04-10 06:54:00,72.6,70.5,29.59,SE,146,13.0,13.0,93,0.00,,---,0.00,VWS V14.01,2013-04-10 11:54:00,
2013-04-10 06:55:00,72.6,70.5,29.59,SE,145,6.0,14.0,93,0.00,,---,0.00,VWS V14.01,2013-04-10 11:55:00,
2013-04-10 06:56:00,72.6,70.5,29.59,SSE,148,10.0,20.0,93,0.00,,---,0.00,VWS V14.01,2013-04-10 11:56:00,
2013-04-10 06:57:00,72.7,70.6,29.59,SSE,165,12.0,14.0,93,0.00,,---,0.00,VWS V14.01,2013-04-10 11:57:00,
2013-04-10 06:58:00,72.7,70.6,29.59,SE,141,10.0,14.0,93,0.00,,---,0.00,VWS V14.01,2013-04-10 11:58:00,
2013-04-10 06:59:00,72.7,70.6,29.59,SE,132,15.0,15.0,93,0.00,,---,0.00,VWS V14.01,2013-04-10 11:59:00,
2013-04-10 07:00:00,72.6,70.5,29.59,ESE,110,10.0,16.0,93,0.00,,---,0.00,VWS V14.01,2013-04-10 12:00:00,
2013-04-10 07:01:00,72.7,70.6,29.59,SSE,163,6.0,12.0,93,0.00,,---,0.00,VWS V14.01,2013-04-10 12:01:00,
2013-04-10 07:02:00,72.7,70.6,29.59,SSE,150,11.0,13.0,93,0.00,,---,0.00,VWS V14.01,2013-04-10 12:02:00,
2013-04-10 07:03:00,72.7,70.6,29.59,SSE,148,10.0,13.0,93,0.00,,---,0.00,VWS V14.01,2013-04-10 12:03:00,
2013-04-10 07:04:00,72.7,70.6,29.60,SE,134,10.0,10.0,93,0.00,,---,0.00,VWS V14.01,2013-04-10 12:04:00,
2013-04-10 07:05:00,72.7,70.6,29.60,SSE,152,9.0,16.0,93,0.00,,---,0.00,VWS V14.01,2013-04-10 12:05:00,
2013-04-10 07:06:00,72.7,70.6,29.60,SE,132,6.0,9.0,93,0.00,,---,0.00,VWS V14.01,2013-04-10 12:06:00,
2013-04-10 07:07:00,72.7,70.6,29.60,SSE,150,10.0,15.0,93,0.00,,---,0.00,VWS V14.01,2013-04-10 12:07:00,
2013-04-10 07:08:00,72.7,70.6,29.60,SE,137,16.0,16.0,93,0.00,,---,0.00,VWS V14.01,2013-04-10 12:08:00,
2013-04-10 07:09:00,72.7,70.6,29.60,SE,137,16.0,16.0,93,0.00,,---,0.00,VWS V14.01,2013-04-10 12:09:00,
2013-04-10 07:10:00,72.6,70.5,29.59,SE,143,7.0,13.0,93,0.00,,---,0.00,VWS V14.01,2013-04-10 12:10:00,
2013-04-10 07:11:00,72.7,70.6,29.60,SSE,167,9.0,12.0,93,0.00,,---,0.00,VWS V14.01,2013-04-10 12:11:00,
2013-04-10 07:12:00,72.7,70.6,29.60,SE,141,11.0,12.0,93,0.00,,---,0.00,VWS V14.01,2013-04-10 12:12:00,
2013-04-10 07:13:00,72.7,70.6,29.60,SSE,148,6.0,18.0,93,0.00,,---,0.00,VWS V14.01,2013-04-10 12:13:00,
2013-04-10 07:14:00,72.7,70.6,29.59,SE,125,6.0,6.0,93,0.00,,---,0.00,VWS V14.01,2013-04-10 12:14:00,
2013-04-10 07:15:00,72.7,70.6,29.60,SE,138,4.0,12.0,93,0.00,,---,0.00,VWS V14.01,2013-04-10 12:15:00,
2013-04-10 07:16:00,72.7,70.6,29.59,SSE,157,9.0,15.0,93,0.00,,---,0.00,VWS V14.01,2013-04-10 12:16:00,
2013-04-10 07:17:00,72.7,70.6,29.60,SE,129,12.0,14.0,93,0.00,,---,0.00,VWS V14.01,2013-04-10 12:17:00,
2013-04-10 07:18:00,72.7,70.6,29.60,ESE,110,5.0,12.0,93,0.00,,---,0.00,VWS V14.01,2013-04-10 12:18:00,
2013-04-10 07:19:00,72.7,70.6,29.60,ESE,110,5.0,12.0,93,0.00,,---,0.00,VWS V14.01,2013-04-10 12:19:00,
2013-04-10 07:20:00,72.7,70.6,29.60,SE,144,6.0,14.0,93,0.00,,---,0.00,VWS V14.01,2013-04-10 12:20:00,
2013-04-10 07:21:00,72.7,70.6,29.60,SSE,152,5.0,13.0,93,0.00,,---,0.00,VWS V14.01,2013-04-10 12:21:00,
2013-04-10 07:22:00,72.7,70.6,29.60,SE,138,7.0,13.0,93,0.00,,---,0.00,VWS V14.01,2013-04-10 12:22:00,
2013-04-10 07:23:00,72.7,70.6,29.60,SSE,161,17.0,17.0,93,0.00,,---,0.00,VWS V14.01,2013-04-10 12:23:00,
2013-04-10 07:24:00,72.7,70.6,29.60,South,182,10.0,17.0,93,0.00,,---,0.00,VWS V14.01,2013-04-10 12:24:00,
2013-04-10 07:25:00,72.7,70.6,29.60,SE,140,10.0,19.0,93,0.00,,---,0.00,VWS V14.01,2013-04-10 12:25:00,
2013-04-10 07:26:00,72.7,70.6,29.60,SE,130,12.0,13.0,93,0.00,,---,0.00,VWS V14.01,2013-04-10 12:26:00,
2013-04-10 07:27:00,72.7,70.6,29.60,SSE,160,10.0,13.0,93,0.00,,---,0.00,VWS V14.01,2013-04-10 12:27:00,
2013-04-10 07:28:00,72.7,70.6,29.60,SE,137,11.0,13.0,93,0.00,,---,0.00,VWS V14.01,2013-04-10 12:28:00,
2013-04-10 07:29:00,72.7,70.6,29.60,SE,137,11.0,13.0,93,0.00,,---,0.00,VWS V14.01,2013-04-10 12:29:00,
2013-04-10 07:30:00,72.7,70.6,29.60,SSE,161,10.0,21.0,93,0.00,,---,0.00,VWS V14.01,2013-04-10 12:30:00,
2013-04-10 07:31:00,72.7,70.6,29.60,SE,129,14.0,14.0,93,0.00,,---,0.00,VWS V14.01,2013-04-10 12:31:00,
2013-04-10 07:32:00,72.7,70.6,29.59,SSE,152,12.0,15.0,93,0.00,,---,0.00,VWS V14.01,2013-04-10 12:32:00,
2013-04-10 07:33:00,72.7,70.6,29.60,SE,129,13.0,21.0,93,0.00,,---,0.00,VWS V14.01,2013-04-10 12:33:00,
2013-04-10 07:34:00,72.7,70.6,29.60,SE,129,13.0,21.0,93,0.00,,---,0.00,VWS V14.01,2013-04-10 12:34:00,
2013-04-10 07:35:00,72.7,70.6,29.59,SE,143,14.0,14.0,93,0.00,,---,0.00,VWS V14.01,2013-04-10 12:35:00,
2013-04-10 07:36:00,72.8,70.7,29.59,South,171,11.0,14.0,93,0.00,,---,0.00,VWS V14.01,2013-04-10 12:36:00,
2013-04-10 07:37:00,72.7,70.6,29.59,ESE,116,15.0,18.0,93,0.00,,---,0.00,VWS V14.01,2013-04-10 12:37:00,
2013-04-10 07:38:00,72.8,70.7,29.59,SE,141,13.0,15.0,93,0.00,,---,0.00,VWS V14.01,2013-04-10 12:38:00,
2013-04-10 07:39:00,72.8,70.7,29.59,SE,141,13.0,15.0,93,0.00,,---,0.00,VWS V14.01,2013-04-10 12:39:00,
2013-04-10 07:40:00,72.7,70.6,29.59,SE,132,12.0,15.0,93,0.00,,---,0.00,VWS V14.01,2013-04-10 12:40:00,
2013-04-10 07:41:00,72.7,70.6,29.60,SSE,150,11.0,17.0,93,0.00,,---,0.00,VWS V14.01,2013-04-10 12:41:00,
2013-04-10 07:42:00,72.8,70.7,29.59,SSE,155,15.0,20.0,93,0.00,,---,0.00,VWS V14.01,2013-04-10 12:42:00,
2013-04-10 07:43:00,72.7,70.6,29.59,SSE,152,11.0,15.0,93,0.00,,---,0.00,VWS V14.01,2013-04-10 12:43:00,
2013-04-10 07:44:00,72.7,70.6,29.59,SSE,152,11.0,15.0,93,0.00,,---,0.00,VWS V14.01,2013-04-10 12:44:00,
2013-04-10 07:45:00,72.8,70.7,29.59,South,170,14.0,20.0,93,0.00,,---,0.00,VWS V14.01,2013-04-10 12:45:00,
2013-04-10 07:46:00,72.8,70.7,29.59,SSE,156,9.0,16.0,93,0.00,,---,0.00,VWS V14.01,2013-04-10 12:46:00,
2013-04-10 07:47:00,72.8,70.7,29.59,SSE,148,11.0,15.0,93,0.00,,---,0.00,VWS V14.01,2013-04-10 12:47:00,
2013-04-10 07:48:00,72.8,70.7,29.59,SSE,161,8.0,14.0,93,0.00,,---,0.00,VWS V14.01,2013-04-10 12:48:00,
2013-04-10 07:49:00,72.8,70.7,29.59,SSE,148,11.0,14.0,93,0.00,,---,0.00,VWS V14.01,2013-04-10 12:49:00,
2013-04-10 07:50:00,72.8,70.7,29.59,SE,143,16.0,21.0,93,0.00,,---,0.00,VWS V14.01,2013-04-10 12:50:00,
2013-04-10 07:51:00,72.8,70.7,29.59,SE,138,13.0,16.0,93,0.00,,---,0.00,VWS V14.01,2013-04-10 12:51:00,
2013-04-10 07:52:00,72.8,70.7,29.59,SSE,160,12.0,17.0,93,0.00,,---,0.00,VWS V14.01,2013-04-10 12:52:00,
2013-04-10 07:53:00,72.8,70.7,29.59,SE,131,14.0,14.0,93,0.00,,---,0.00,VWS V14.01,2013-04-10 12:53:00,
2013-04-10 07:54:00,72.8,70.7,29.59,SE,131,14.0,14.0,93,0.00,,---,0.00,VWS V14.01,2013-04-10 12:54:00,
2013-04-10 07:55:00,72.8,70.7,29.59,SSE,161,12.0,13.0,93,0.00,,---,0.00,VWS V14.01,2013-04-10 12:55:00,
2013-04-10 07:56:00,72.8,70.7,29.60,SSE,160,11.0,20.0,93,0.00,,---,0.00,VWS V14.01,2013-04-10 12:56:00,
2013-04-10 07:57:00,72.8,70.7,29.60,SE,146,12.0,13.0,93,0.00,,---,0.00,VWS V14.01,2013-04-10 12:57:00,
2013-04-10 07:58:00,72.8,70.7,29.59,SE,143,12.0,17.0,93,0.00,,---,0.00,VWS V14.01,2013-04-10 12:58:00,
2013-04-10 07:59:00,72.8,70.7,29.59,SE,130,13.0,17.0,93,0.00,,---,0.00,VWS V14.01,2013-04-10 12:59:00,
2013-04-10 08:00:00,72.8,70.7,29.60,South,184,16.0,18.0,93,0.00,,---,0.00,VWS V14.01,2013-04-10 13:00:00,
2013-04-10 08:01:00,72.8,70.7,29.60,SSE,164,11.0,21.0,93,0.00,,---,0.00,VWS V14.01,2013-04-10 13:01:00,
2013-04-10 08:02:00,72.8,70.7,29.60,SSE,153,11.0,16.0,93,0.00,,---,0.00,VWS V14.01,2013-04-10 13:02:00,
2013-04-10 08:03:00,72.8,70.7,29.59,SSE,163,8.0,14.0,93,0.00,,---,0.00,VWS V14.01,2013-04-10 13:03:00,
2013-04-10 08:04:00,72.8,70.7,29.59,SSE,161,11.0,14.0,93,0.00,,---,0.00,VWS V14.01,2013-04-10 13:04:00,
2013-04-10 08:05:00,72.8,70.7,29.60,SE,132,9.0,16.0,93,0.00,,---,0.00,VWS V14.01,2013-04-10 13:05:00,
2013-04-10 08:06:00,72.8,70.7,29.60,SE,129,11.0,20.0,93,0.00,,---,0.00,VWS V14.01,2013-04-10 13:06:00,
2013-04-10 08:07:00,72.8,70.7,29.60,SSE,153,14.0,20.0,93,0.00,,---,0.00,VWS V14.01,2013-04-10 13:07:00,
2013-04-10 08:08:00,72.8,70.7,29.60,SSE,153,14.0,20.0,93,0.00,,---,0.00,VWS V14.01,2013-04-10 13:08:00,
2013-04-10 08:09:00,72.8,70.7,29.60,SSE,160,14.0,20.0,93,0.00,,---,0.00,VWS V14.01,2013-04-10 13:09:00,
2013-04-10 08:10:00,72.8,70.7,29.60,SSE,152,12.0,18.0,93,0.00,,---,0.00,VWS V14.01,2013-04-10 13:10:00,
2013-04-10 08:11:00,72.8,70.7,29.60,SSE,160,10.0,16.0,93,0.00,,---,0.00,VWS V14.01,2013-04-10 13:11:00,
2013-04-10 08:12:00,72.9,70.8,29.60,SE,142,6.0,14.0,93,0.00,,---,0.00,VWS V14.01,2013-04-10 13:12:00,
2013-04-10 08:13:00,72.9,70.8,29.60,SSE,153,6.0,13.0,93,0.00,,---,0.00,VWS V14.01,2013-04-10 13:13:00,
2013-04-10 08:14:00,72.9,70.8,29.60,SSE,148,10.0,13.0,93,0.00,,---,0.00,VWS V14.01,2013-04-10 13:14:00,
2013-04-10 08:15:00,72.9,70.8,29.60,SSE,168,12.0,19.0,93,0.00,,---,0.00,VWS V14.01,2013-04-10 13:15:00,
2013-04-10 08:16:00,72.9,70.8,29.60,South,191,16.0,17.0,93,0.00,,---,0.00,VWS V14.01,2013-04-10 13:16:00,
2013-04-10 08:17:00,73.0,70.9,29.60,SSE,152,11.0,16.0,93,0.00,,---,0.00,VWS V14.01,2013-04-10 13:17:00,
2013-04-10 08:18:00,73.0,70.9,29.60,South,178,11.0,15.0,93,0.00,,---,0.00,VWS V14.01,2013-04-10 13:18:00,
2013-04-10 08:19:00,73.0,70.9,29.60,SSE,167,15.0,15.0,93,0.00,,---,0.00,VWS V14.01,2013-04-10 13:19:00,
2013-04-10 08:20:00,73.0,70.5,29.60,SE,145,6.0,14.0,92,0.00,,---,0.00,VWS V14.01,2013-04-10 13:20:00,
2013-04-10 08:21:00,73.0,70.5,29.60,SSE,163,13.0,18.0,92,0.00,,---,0.00,VWS V14.01,2013-04-10 13:21:00,
2013-04-10 08:22:00,73.0,70.5,29.60,SE,135,10.0,15.0,92,0.00,,---,0.00,VWS V14.01,2013-04-10 13:22:00,
2013-04-10 08:23:00,73.0,70.5,29.60,SSE,168,7.0,17.0,92,0.00,,---,0.00,VWS V14.01,2013-04-10 13:23:00,
2013-04-10 08:24:00,73.0,70.5,29.60,SSE,154,12.0,17.0,92,0.00,,---,0.00,VWS V14.01,2013-04-10 13:24:00,
2013-04-10 08:25:00,73.0,70.5,29.60,SSE,151,12.0,21.0,92,0.00,,---,0.00,VWS V14.01,2013-04-10 13:25:00,
2013-04-10 08:26:00,73.0,70.5,29.60,SSE,165,12.0,16.0,92,0.00,,---,0.00,VWS V14.01,2013-04-10 13:26:00,
2013-04-10 08:27:00,73.1,70.6,29.60,SSE,159,9.0,13.0,92,0.00,,---,0.00,VWS V14.01,2013-04-10 13:27:00,
2013-04-10 08:28:00,73.1,70.6,29.60,South,176,11.0,16.0,92,0.00,,---,0.00,VWS V14.01,2013-04-10 13:28:00,
2013-04-10 08:29:00,73.1,70.6,29.60,SSE,158,11.0,16.0,92,0.00,,---,0.00,VWS V14.01,2013-04-10 13:29:00,
2013-04-10 08:30:00,73.1,70.6,29.60,SE,126,12.0,25.0,92,0.00,,---,0.00,VWS V14.01,2013-04-10 13:30:00,
2013-04-10 08:31:00,73.2,70.7,29.60,SSE,168,15.0,16.0,92,0.00,,---,0.00,VWS V14.01,2013-04-10 13:31:00,
2013-04-10 08:32:00,73.2,70.7,29.60,SSE,159,15.0,17.0,92,0.00,,---,0.00,VWS V14.01,2013-04-10 13:32:00,
2013-04-10 08:33:00,73.3,70.8,29.60,SSE,168,11.0,15.0,92,0.00,,---,0.00,VWS V14.01,2013-04-10 13:33:00,
2013-04-10 08:34:00,73.2,70.7,29.60,SSE,167,14.0,15.0,92,0.00,,---,0.00,VWS V14.01,2013-04-10 13:34:00,
2013-04-10 08:35:00,73.3,70.8,29.60,South,173,14.0,20.0,92,0.00,,---,0.00,VWS V14.01,2013-04-10 13:35:00,
2013-04-10 08:36:00,73.3,70.8,29.60,South,180,17.0,17.0,92,0.00,,---,0.00,VWS V14.01,2013-04-10 13:36:00,
2013-04-10 08:37:00,73.4,70.9,29.60,SE,144,11.0,17.0,92,0.00,,---,0.00,VWS V14.01,2013-04-10 13:37:00,
2013-04-10 08:38:00,73.4,70.9,29.60,South,170,7.0,23.0,92,0.00,,---,0.00,VWS V14.01,2013-04-10 13:38:00,
2013-04-10 08:39:00,73.4,70.9,29.60,SSE,164,10.0,23.0,92,0.00,,---,0.00,VWS V14.01,2013-04-10 13:39:00,
2013-04-10 08:40:00,73.5,71.0,29.61,SSE,161,14.0,21.0,92,0.00,,---,0.00,VWS V14.01,2013-04-10 13:40:00,
2013-04-10 08:41:00,73.5,71.0,29.61,South,172,15.0,23.0,92,0.00,,---,0.00,VWS V14.01,2013-04-10 13:41:00,
2013-04-10 08:42:00,73.5,71.0,29.61,SE,137,10.0,15.0,92,0.00,,---,0.00,VWS V14.01,2013-04-10 13:42:00,
2013-04-10 08:43:00,73.6,71.1,29.61,South,189,19.0,19.0,92,0.00,,---,0.00,VWS V14.01,2013-04-10 13:43:00,
2013-04-10 08:44:00,73.5,71.0,29.61,SSE,167,19.0,19.0,92,0.00,,---,0.00,VWS V14.01,2013-04-10 13:44:00,
2013-04-10 08:45:00,73.6,70.8,29.61,SSE,166,11.0,18.0,91,0.00,,---,0.00,VWS V14.01,2013-04-10 13:45:00,
2013-04-10 08:46:00,73.7,70.9,29.61,SSE,168,14.0,14.0,91,0.00,,---,0.00,VWS V14.01,2013-04-10 13:46:00,
2013-04-10 08:47:00,73.7,70.9,29.61,SSE,156,15.0,16.0,91,0.00,,---,0.00,VWS V14.01,2013-04-10 13:47:00,
2013-04-10 08:48:00,73.7,70.9,29.61,SSE,167,14.0,20.0,91,0.00,,---,0.00,VWS V14.01,2013-04-10 13:48:00,
2013-04-10 08:49:00,73.7,70.9,29.61,South,172,17.0,20.0,91,0.00,,---,0.00,VWS V14.01,2013-04-10 13:49:00,
2013-04-10 08:50:00,73.8,71.0,29.61,SSE,162,12.0,23.0,91,0.00,,---,0.00,VWS V14.01,2013-04-10 13:50:00,
2013-04-10 08:51:00,73.9,71.1,29.61,SSE,159,17.0,18.0,91,0.00,,---,0.00,VWS V14.01,2013-04-10 13:51:00,
2013-04-10 08:52:00,73.9,71.1,29.61,South,170,16.0,17.0,91,0.00,,---,0.00,VWS V14.01,2013-04-10 13:52:00,
2013-04-10 08:53:00,74.0,71.2,29.61,SSE,167,12.0,16.0,91,0.00,,---,0.00,VWS V14.01,2013-04-10 13:53:00,
2013-04-10 08:54:00,74.0,71.2,29.61,SSE,164,11.0,16.0,91,0.00,,---,0.00,VWS V14.01,2013-04-10 13:54:00,
2013-04-10 08:55:00,74.1,71.3,29.61,SSE,155,17.0,18.0,91,0.00,,---,0.00,VWS V14.01,2013-04-10 13:55:00,
2013-04-10 08:56:00,74.2,71.4,29.61,South,169,15.0,19.0,91,0.00,,---,0.00,VWS V14.01,2013-04-10 13:56:00,
2013-04-10 08:57:00,74.2,71.4,29.61,SSE,161,11.0,17.0,91,0.00,,---,0.00,VWS V14.01,2013-04-10 13:57:00,
2013-04-10 08:58:00,74.2,71.4,29.61,South,176,10.0,15.0,91,0.00,,---,0.00,VWS V14.01,2013-04-10 13:58:00,
2013-04-10 08:59:00,74.3,71.5,29.61,South,169,11.0,15.0,91,0.00,,---,0.00,VWS V14.01,2013-04-10 13:59:00,
2013-04-10 09:00:00,74.3,71.2,29.61,SSE,165,11.0,13.0,90,0.00,,---,0.00,VWS V14.01,2013-04-10 14:00:00,
2013-04-10 09:01:00,74.4,71.3,29.61,SSE,161,12.0,18.0,90,0.00,,---,0.00,VWS V14.01,2013-04-10 14:01:00,
2013-04-10 09:02:00,74.4,71.3,29.61,South,190,12.0,17.0,90,0.00,,---,0.00,VWS V14.01,2013-04-10 14:02:00,
2013-04-10 09:03:00,74.5,71.4,29.61,SE,146,17.0,24.0,90,0.00,,---,0.00,VWS V14.01,2013-04-10 14:03:00,
2013-04-10 09:04:00,74.5,71.4,29.61,South,169,24.0,24.0,90,0.00,,---,0.00,VWS V14.01,2013-04-10 14:04:00,
2013-04-10 09:05:00,74.5,71.4,29.61,SSE,163,14.0,22.0,90,0.00,,---,0.00,VWS V14.01,2013-04-10 14:05:00,
2013-04-10 09:06:00,74.6,71.2,29.61,SSE,168,23.0,26.0,89,0.00,,---,0.00,VWS V14.01,2013-04-10 14:06:00,
2013-04-10 09:07:00,74.6,71.2,29.61,SSE,161,22.0,25.0,89,0.00,,---,0.00,VWS V14.01,2013-04-10 14:07:00,
2013-04-10 09:08:00,74.6,71.2,29.62,SSE,161,11.0,22.0,89,0.00,,---,0.00,VWS V14.01,2013-04-10 14:08:00,
2013-04-10 09:09:00,74.6,71.2,29.62,SSE,164,10.0,22.0,89,0.00,,---,0.00,VWS V14.01,2013-04-10 14:09:00,
2013-04-10 09:10:00,74.6,71.2,29.62,South,169,15.0,18.0,89,0.00,,---,0.00,VWS V14.01,2013-04-10 14:10:00,
2013-04-10 09:11:00,74.6,71.2,29.62,South,173,15.0,17.0,89,0.00,,---,0.00,VWS V14.01,2013-04-10 14:11:00,
2013-04-10 09:12:00,74.7,71.2,29.62,South,178,9.0,18.0,89,0.00,,---,0.00,VWS V14.01,2013-04-10 14:12:00,
2013-04-10 09:13:00,74.7,71.2,29.62,SSE,152,11.0,15.0,89,0.00,,---,0.00,VWS V14.01,2013-04-10 14:13:00,
2013-04-10 09:14:00,74.7,71.2,29.62,South,169,12.0,15.0,89,0.00,,---,0.00,VWS V14.01,2013-04-10 14:14:00,
2013-04-10 09:15:00,74.8,71.3,29.62,SSE,168,10.0,16.0,89,0.00,,---,0.00,VWS V14.01,2013-04-10 14:15:00,
2013-04-10 09:16:00,74.8,71.3,29.62,South,182,14.0,14.0,89,0.00,,---,0.00,VWS V14.01,2013-04-10 14:16:00,
2013-04-10 09:17:00,74.8,71.3,29.63,SSE,168,16.0,21.0,89,0.00,,---,0.00,VWS V14.01,2013-04-10 14:17:00,
2013-04-10 09:18:00,74.9,71.4,29.63,SSE,165,22.0,22.0,89,0.00,,---,0.00,VWS V14.01,2013-04-10 14:18:00,
2013-04-10 09:19:00,74.8,71.3,29.63,South,180,16.0,19.0,89,0.00,,---,0.00,VWS V14.01,2013-04-10 14:19:00,
2013-04-10 09:20:00,74.9,71.4,29.63,South,172,13.0,22.0,89,0.00,,---,0.00,VWS V14.01,2013-04-10 14:20:00,
2013-04-10 09:21:00,74.9,71.4,29.63,South,182,12.0,14.0,89,0.00,,---,0.00,VWS V14.01,2013-04-10 14:21:00,
2013-04-10 09:22:00,74.9,71.4,29.63,South,185,16.0,17.0,89,0.00,,---,0.00,VWS V14.01,2013-04-10 14:22:00,
2013-04-10 09:23:00,75.0,71.5,29.63,SSE,149,10.0,16.0,89,0.00,,---,0.00,VWS V14.01,2013-04-10 14:23:00,
2013-04-10 09:24:00,74.9,71.4,29.63,South,175,14.0,16.0,89,0.00,,---,0.00,VWS V14.01,2013-04-10 14:24:00,
2013-04-10 09:25:00,75.0,71.5,29.63,SSE,163,13.0,18.0,89,0.00,,---,0.00,VWS V14.01,2013-04-10 14:25:00,
2013-04-10 09:26:00,75.0,71.5,29.64,South,173,10.0,13.0,89,0.00,,---,0.00,VWS V14.01,2013-04-10 14:26:00,
2013-04-10 09:27:00,75.1,71.6,29.64,SSE,160,5.0,16.0,89,0.00,,---,0.00,VWS V14.01,2013-04-10 14:27:00,
2013-04-10 09:28:00,75.1,71.6,29.64,SSE,155,13.0,17.0,89,0.00,,---,0.00,VWS V14.01,2013-04-10 14:28:00,
2013-04-10 09:29:00,75.1,71.6,29.64,SSE,168,12.0,17.0,89,0.00,,---,0.00,VWS V14.01,2013-04-10 14:29:00,
2013-04-10 09:30:00,75.2,71.4,29.64,South,173,12.0,14.0,88,0.00,,---,0.00,VWS V14.01,2013-04-10 14:30:00,
2013-04-10 09:31:00,75.2,71.4,29.64,SSE,161,6.0,13.0,88,0.00,,---,0.00,VWS V14.01,2013-04-10 14:31:00,
2013-04-10 09:32:00,75.3,71.5,29.64,SSE,160,5.0,10.0,88,0.00,,---,0.00,VWS V14.01,2013-04-10 14:32:00,
2013-04-10 09:33:00,75.3,71.5,29.64,South,181,10.0,10.0,88,0.00,,---,0.00,VWS V14.01,2013-04-10 14:33:00,
2013-04-10 09:34:00,75.3,71.5,29.64,SSW,192,5.0,8.0,88,0.00,,---,0.00,VWS V14.01,2013-04-10 14:34:00,
2013-04-10 09:35:00,75.4,71.6,29.65,SSE,157,5.0,11.0,88,0.00,,---,0.00,VWS V14.01,2013-04-10 14:35:00,
2013-04-10 09:36:00,75.5,71.7,29.65,South,179,11.0,11.0,88,0.00,,---,0.00,VWS V14.01,2013-04-10 14:36:00,
2013-04-10 09:37:00,75.5,71.7,29.65,South,186,12.0,22.0,88,0.00,,---,0.00,VWS V14.01,2013-04-10 14:37:00,
2013-04-10 09:38:00,75.5,71.7,29.65,South,169,17.0,17.0,88,0.00,,---,0.00,VWS V14.01,2013-04-10 14:38:00,
2013-04-10 09:39:00,75.5,71.7,29.65,South,175,10.0,16.0,88,0.00,,---,0.00,VWS V14.01,2013-04-10 14:39:00,
2013-04-10 09:40:00,75.6,71.8,29.65,South,171,10.0,15.0,88,0.00,,---,0.00,VWS V14.01,2013-04-10 14:40:00,
2013-04-10 09:42:00,75.6,71.8,29.65,SSW,194,16.0,16.0,88,0.00,,---,0.00,VWS V14.01,2013-04-10 14:42:00,
2013-04-10 09:43:00,75.7,71.6,29.65,SSW,199,15.0,17.0,87,0.00,,---,0.00,VWS V14.01,2013-04-10 14:43:00,
2013-04-10 09:44:00,75.7,71.6,29.66,South,190,18.0,19.0,87,0.00,,---,0.00,VWS V14.01,2013-04-10 14:44:00,
2013-04-10 09:46:00,75.7,71.6,29.66,SSW,194,11.0,16.0,87,0.00,,---,0.00,VWS V14.01,2013-04-10 14:46:00,
2013-04-10 09:47:00,75.7,71.6,29.66,South,184,7.0,15.0,87,0.00,,---,0.00,VWS V14.01,2013-04-10 14:47:00,
2013-04-10 09:48:00,75.7,71.6,29.66,South,178,16.0,18.0,87,0.00,,---,0.00,VWS V14.01,2013-04-10 14:48:00,
2013-04-10 09:49:00,75.8,71.7,29.66,SSW,192,12.0,21.0,87,0.00,,---,0.00,VWS V14.01,2013-04-10 14:49:00,
2013-04-10 09:50:00,75.8,71.7,29.66,South,188,17.0,21.0,87,0.00,,---,0.00,VWS V14.01,2013-04-10 14:50:00,
2013-04-10 09:51:00,75.8,71.7,29.66,SSW,213,23.0,23.0,87,0.00,,---,0.00,VWS V14.01,2013-04-10 14:51:00,
2013-04-10 09:52:00,75.8,71.7,29.66,South,191,17.0,23.0,87,0.00,,---,0.00,VWS V14.01,2013-04-10 14:52:00,
2013-04-10 09:53:00,75.9,71.8,29.66,SSW,196,23.0,23.0,87,0.00,,---,0.00,VWS V14.01,2013-04-10 14:53:00,
2013-04-10 09:54:00,75.9,71.4,29.66,South,183,19.0,25.0,86,0.00,,---,0.00,VWS V14.01,2013-04-10 14:54:00,
2013-04-10 09:55:00,76.0,71.5,29.66,SSW,193,21.0,22.0,86,0.00,,---,0.00,VWS V14.01,2013-04-10 14:55:00,
2013-04-10 09:56:00,76.0,71.5,29.66,South,178,15.0,21.0,86,0.00,,---,0.00,VWS V14.01,2013-04-10 14:56:00,
2013-04-10 09:57:00,76.0,71.5,29.66,South,187,8.0,15.0,86,0.00,,---,0.00,VWS V14.01,2013-04-10 14:57:00,
2013-04-10 09:58:00,76.1,71.6,29.66,South,175,9.0,12.0,86,0.00,,---,0.00,VWS V14.01,2013-04-10 14:58:00,
2013-04-10 09:59:00,76.1,71.6,29.66,South,169,10.0,13.0,86,0.00,,---,0.00,VWS V14.01,2013-04-10 14:59:00,
2013-04-10 10:00:00,76.2,71.7,29.66,South,186,7.0,14.0,86,0.00,,---,0.00,VWS V14.01,2013-04-10 15:00:00,
2013-04-10 10:01:00,76.2,71.7,29.66,South,191,13.0,17.0,86,0.00,,---,0.00,VWS V14.01,2013-04-10 15:01:00,
2013-04-10 10:02:00,76.3,71.8,29.66,South,184,12.0,16.0,86,0.00,,---,0.00,VWS V14.01,2013-04-10 15:02:00,
2013-04-10 10:03:00,76.3,71.8,29.66,SSW,205,14.0,17.0,86,0.00,,---,0.00,VWS V14.01,2013-04-10 15:03:00,
2013-04-10 10:04:00,76.3,71.8,29.66,SSE,168,11.0,14.0,86,0.00,,---,0.00,VWS V14.01,2013-04-10 15:04:00,
2013-04-10 10:05:00,76.3,71.8,29.66,SSW,206,5.0,15.0,86,0.00,,---,0.00,VWS V14.01,2013-04-10 15:05:00,
2013-04-10 10:06:00,76.4,71.9,29.66,South,184,9.0,14.0,86,0.00,,---,0.00,VWS V14.01,2013-04-10 15:06:00,
2013-04-10 10:07:00,76.4,71.9,29.66,SSW,207,6.0,16.0,86,0.00,,---,0.00,VWS V14.01,2013-04-10 15:07:00,
2013-04-10 10:08:00,76.4,71.9,29.66,South,173,12.0,14.0,86,0.00,,---,0.00,VWS V14.01,2013-04-10 15:08:00,
2013-04-10 10:09:00,76.4,71.9,29.66,SSW,195,11.0,15.0,86,0.00,,---,0.00,VWS V14.01,2013-04-10 15:09:00,
2013-04-10 10:10:00,76.4,71.9,29.66,South,175,16.0,16.0,86,0.00,,---,0.00,VWS V14.01,2013-04-10 15:10:00,
2013-04-10 10:11:00,76.4,71.9,29.66,SSW,202,14.0,17.0,86,0.00,,---,0.00,VWS V14.01,2013-04-10 15:11:00,
2013-04-10 10:12:00,76.4,71.9,29.67,South,171,11.0,14.0,86,0.00,,---,0.00,VWS V14.01,2013-04-10 15:12:00,
2013-04-10 10:13:00,76.4,71.9,29.67,South,190,10.0,16.0,86,0.00,,---,0.00,VWS V14.01,2013-04-10 15:13:00,
2013-04-10 10:14:00,76.5,72.0,29.67,SE,136,4.0,17.0,86,0.00,,---,0.00,VWS V14.01,2013-04-10 15:14:00,
2013-04-10 10:15:00,76.5,72.0,29.67,South,190,11.0,12.0,86,0.00,,---,0.00,VWS V14.01,2013-04-10 15:15:00,
2013-04-10 10:16:00,76.5,72.0,29.67,South,187,10.0,13.0,86,0.00,,---,0.00,VWS V14.01,2013-04-10 15:16:00,
2013-04-10 10:17:00,76.6,72.1,29.67,South,175,10.0,13.0,86,0.00,,---,0.00,VWS V14.01,2013-04-10 15:17:00,
2013-04-10 10:18:00,76.6,72.1,29.67,South,169,7.0,11.0,86,0.00,,---,0.00,VWS V14.01,2013-04-10 15:18:00,
2013-04-10 10:19:00,76.6,72.1,29.67,SSW,195,10.0,15.0,86,0.00,,---,0.00,VWS V14.01,2013-04-10 15:19:00,
2013-04-10 10:20:00,76.6,71.8,29.67,SSW,192,13.0,14.0,85,0.00,,---,0.00,VWS V14.01,2013-04-10 15:20:00,
2013-04-10 10:21:00,76.7,71.9,29.67,South,169,15.0,15.0,85,0.00,,---,0.00,VWS V14.01,2013-04-10 15:21:00,
2013-04-10 10:22:00,76.7,71.9,29.67,South,184,9.0,15.0,85,0.00,,---,0.00,VWS V14.01,2013-04-10 15:22:00,
2013-04-10 10:23:00,76.7,71.9,29.67,South,184,12.0,12.0,85,0.00,,---,0.00,VWS V14.01,2013-04-10 15:23:00,
2013-04-10 10:24:00,76.8,71.9,29.67,SSW,192,10.0,17.0,85,0.00,,---,0.00,VWS V14.01,2013-04-10 15:24:00,
2013-04-10 10:25:00,76.8,71.9,29.67,South,191,14.0,16.0,85,0.00,,---,0.00,VWS V14.01,2013-04-10 15:25:00,
2013-04-10 10:26:00,76.8,71.9,29.67,SSW,200,9.0,14.0,85,0.00,,---,0.00,VWS V14.01,2013-04-10 15:26:00,
2013-04-10 10:27:00,76.8,71.9,29.67,South,190,11.0,15.0,85,0.00,,---,0.00,VWS V14.01,2013-04-10 15:27:00,
2013-04-10 10:28:00,76.9,72.1,29.67,South,178,5.0,11.0,85,0.00,,---,0.00,VWS V14.01,2013-04-10 15:28:00,
2013-04-10 10:29:00,76.9,72.1,29.67,SSE,165,6.0,12.0,85,0.00,,---,0.00,VWS V14.01,2013-04-10 15:29:00,
2013-04-10 10:30:00,76.9,72.1,29.67,South,182,12.0,15.0,85,0.00,,---,0.00,VWS V14.01,2013-04-10 15:30:00,
2013-04-10 10:31:00,76.9,72.1,29.67,SSE,163,13.0,13.0,85,0.00,,---,0.00,VWS V14.01,2013-04-10 15:31:00,
2013-04-10 10:32:00,77.0,72.2,29.67,South,181,11.0,14.0,85,0.00,,---,0.00,VWS V14.01,2013-04-10 15:32:00,
2013-04-10 10:33:00,77.0,72.2,29.67,South,191,10.0,11.0,85,0.00,,---,0.00,VWS V14.01,2013-04-10 15:33:00,
2013-04-10 10:34:00,77.0,72.2,29.67,South,187,13.0,13.0,85,0.00,,---,0.00,VWS V14.01,2013-04-10 15:34:00,
2013-04-10 10:35:00,77.0,72.2,29.67,South,175,11.0,14.0,85,0.00,,---,0.00,VWS V14.01,2013-04-10 15:35:00,
2013-04-10 10:36:00,77.0,71.8,29.67,SSW,195,9.0,14.0,84,0.00,,---,0.00,VWS V14.01,2013-04-10 15:36:00,
2013-04-10 10:37:00,77.0,71.8,29.67,South,190,7.0,13.0,84,0.00,,---,0.00,VWS V14.01,2013-04-10 15:37:00,
2013-04-10 10:38:00,77.0,71.8,29.67,SSW,194,13.0,13.0,84,0.00,,---,0.00,VWS V14.01,2013-04-10 15:38:00,
2013-04-10 10:39:00,77.1,71.9,29.67,SSE,167,11.0,12.0,84,0.00,,---,0.00,VWS V14.01,2013-04-10 15:39:00,
2013-04-10 10:40:00,77.1,71.9,29.67,SSW,196,11.0,11.0,84,0.00,,---,0.00,VWS V14.01,2013-04-10 15:40:00,
2013-04-10 10:41:00,77.1,71.9,29.67,SSW,198,14.0,16.0,84,0.00,,---,0.00,VWS V14.01,2013-04-10 15:41:00,
2013-04-10 10:42:00,77.1,71.9,29.67,South,180,13.0,14.0,84,0.00,,---,0.00,VWS V14.01,2013-04-10 15:42:00,
2013-04-10 10:43:00,77.1,71.9,29.67,South,188,9.0,13.0,84,0.00,,---,0.00,VWS V14.01,2013-04-10 15:43:00,
2013-04-10 10:44:00,77.1,71.9,29.67,South,184,9.0,10.0,84,0.00,,---,0.00,VWS V14.01,2013-04-10 15:44:00,
2013-04-10 10:45:00,77.1,71.9,29.67,South,173,9.0,9.0,84,0.00,,---,0.00,VWS V14.01,2013-04-10 15:45:00,
2013-04-10 10:46:00,77.1,71.9,29.67,South,181,13.0,14.0,84,0.00,,---,0.00,VWS V14.01,2013-04-10 15:46:00,
2013-04-10 10:47:00,77.1,71.9,29.67,South,188,13.0,14.0,84,0.00,,---,0.00,VWS V14.01,2013-04-10 15:47:00,
2013-04-10 10:48:00,77.2,72.0,29.67,SSW,193,11.0,13.0,84,0.00,,---,0.00,VWS V14.01,2013-04-10 15:48:00,
2013-04-10 10:49:00,77.2,72.0,29.67,SSW,193,8.0,13.0,84,0.00,,---,0.00,VWS V14.01,2013-04-10 15:49:00,
2013-04-10 10:50:00,77.2,72.0,29.67,South,190,13.0,13.0,84,0.00,,---,0.00,VWS V14.01,2013-04-10 15:50:00,
2013-04-10 10:51:00,77.2,72.0,29.67,South,186,11.0,13.0,84,0.00,,---,0.00,VWS V14.01,2013-04-10 15:51:00,
2013-04-10 10:52:00,77.3,72.1,29.67,South,170,9.0,13.0,84,0.00,,---,0.00,VWS V14.01,2013-04-10 15:52:00,
2013-04-10 10:53:00,77.3,72.1,29.67,SSE,165,8.0,10.0,84,0.00,,---,0.00,VWS V14.01,2013-04-10 15:53:00,
2013-04-10 10:54:00,77.3,72.1,29.67,South,173,9.0,10.0,84,0.00,,---,0.00,VWS V14.01,2013-04-10 15:54:00,
2013-04-10 10:55:00,77.3,72.1,29.67,SSE,165,4.0,10.0,84,0.00,,---,0.00,VWS V14.01,2013-04-10 15:55:00,
2013-04-10 10:56:00,77.3,72.1,29.67,South,179,8.0,9.0,84,0.00,,---,0.00,VWS V14.01,2013-04-10 15:56:00,
2013-04-10 10:57:00,77.3,72.1,29.67,South,183,9.0,11.0,84,0.00,,---,0.00,VWS V14.01,2013-04-10 15:57:00,
2013-04-10 10:58:00,77.3,72.1,29.67,SSE,166,8.0,11.0,84,0.00,,---,0.00,VWS V14.01,2013-04-10 15:58:00,
2013-04-10 10:59:00,77.3,72.1,29.67,South,191,9.0,10.0,84,0.00,,---,0.00,VWS V14.01,2013-04-10 15:59:00,
2013-04-10 11:00:00,77.3,72.1,29.67,South,173,3.0,8.0,84,0.00,,---,0.00,VWS V14.01,2013-04-10 16:00:00,
2013-04-10 11:01:00,77.3,72.1,29.67,South,188,9.0,9.0,84,0.00,,---,0.00,VWS V14.01,2013-04-10 16:01:00,
2013-04-10 11:02:00,77.3,72.1,29.67,South,182,6.0,9.0,84,0.00,,---,0.00,VWS V14.01,2013-04-10 16:02:00,
2013-04-10 11:03:00,77.3,72.1,29.67,South,182,6.0,6.0,84,0.00,,---,0.00,VWS V14.01,2013-04-10 16:03:00,
2013-04-10 11:04:00,77.3,72.1,29.67,South,184,3.0,7.0,84,0.00,,---,0.00,VWS V14.01,2013-04-10 16:04:00,
2013-04-10 11:05:00,77.3,72.1,29.67,South,190,3.0,6.0,84,0.00,,---,0.00,VWS V14.01,2013-04-10 16:05:00,
2013-04-10 11:06:00,77.4,72.2,29.67,South,180,3.0,5.0,84,0.00,,---,0.00,VWS V14.01,2013-04-10 16:06:00,
2013-04-10 11:07:00,77.4,72.2,29.67,SSE,163,5.0,5.0,84,0.00,,---,0.00,VWS V14.01,2013-04-10 16:07:00,
2013-04-10 11:08:00,77.4,72.2,29.67,South,172,7.0,7.0,84,0.00,,---,0.00,VWS V14.01,2013-04-10 16:08:00,
2013-04-10 11:09:00,77.4,72.2,29.67,South,172,5.0,7.0,84,0.00,,---,0.00,VWS V14.01,2013-04-10 16:09:00,
2013-04-10 11:10:00,77.4,72.2,29.68,South,185,2.0,6.0,84,0.00,,---,0.00,VWS V14.01,2013-04-10 16:10:00,
2013-04-10 11:11:00,77.4,72.2,29.68,South,181,3.0,7.0,84,0.00,,---,0.00,VWS V14.01,2013-04-10 16:11:00,
2013-04-10 11:12:00,77.5,72.3,29.68,South,172,6.0,6.0,84,0.00,,---,0.00,VWS V14.01,2013-04-10 16:12:00,
2013-04-10 11:13:00,77.5,72.3,29.68,South,173,5.0,6.0,84,0.00,,---,0.00,VWS V14.01,2013-04-10 16:13:00,
2013-04-10 11:14:00,77.5,72.3,29.68,South,171,3.0,5.0,84,0.00,,---,0.00,VWS V14.01,2013-04-10 16:14:00,
2013-04-10 11:15:00,77.5,72.3,29.68,South,178,4.0,5.0,84,0.00,,---,0.00,VWS V14.01,2013-04-10 16:15:00,
2013-04-10 11:16:00,77.5,72.3,29.68,SSE,165,4.0,7.0,84,0.00,,---,0.00,VWS V14.01,2013-04-10 16:16:00,
2013-04-10 11:17:00,77.5,72.3,29.68,South,178,5.0,6.0,84,0.00,,---,0.00,VWS V14.01,2013-04-10 16:17:00,
2013-04-10 11:18:00,77.6,72.4,29.68,South,180,5.0,5.0,84,0.00,,---,0.00,VWS V14.01,2013-04-10 16:18:00,
2013-04-10 11:19:00,77.6,72.4,29.68,South,175,7.0,9.0,84,0.00,,---,0.00,VWS V14.01,2013-04-10 16:19:00,
2013-04-10 11:20:00,77.6,72.4,29.68,South,175,2.0,9.0,84,0.00,,---,0.00,VWS V14.01,2013-04-10 16:20:00,
2013-04-10 11:21:00,77.6,72.4,29.68,South,186,4.0,9.0,84,0.00,,---,0.00,VWS V14.01,2013-04-10 16:21:00,
2013-04-10 11:22:00,77.6,72.4,29.68,SSW,207,5.0,6.0,84,0.00,,---,0.00,VWS V14.01,2013-04-10 16:22:00,
2013-04-10 11:23:00,77.6,72.4,29.68,SSW,207,4.0,6.0,84,0.00,,---,0.00,VWS V14.01,2013-04-10 16:23:00,
2013-04-10 11:24:00,77.7,72.5,29.68,SSW,207,1.0,4.0,84,0.00,,---,0.00,VWS V14.01,2013-04-10 16:24:00,
2013-04-10 11:25:00,77.7,72.5,29.68,South,186,4.0,5.0,84,0.00,,---,0.00,VWS V14.01,2013-04-10 16:25:00,
2013-04-10 11:26:00,77.8,72.6,29.68,SSW,196,3.0,7.0,84,0.00,,---,0.00,VWS V14.01,2013-04-10 16:26:00,
2013-04-10 11:27:00,77.8,72.6,29.68,SSW,196,4.0,5.0,84,0.00,,---,0.00,VWS V14.01,2013-04-10 16:27:00,
2013-04-10 11:28:00,77.8,72.6,29.68,SSW,196,2.0,4.0,84,0.00,,---,0.00,VWS V14.01,2013-04-10 16:28:00,
2013-04-10 11:29:00,77.8,72.6,29.68,South,186,5.0,5.0,84,0.00,,---,0.00,VWS V14.01,2013-04-10 16:29:00,
2013-04-10 11:30:00,77.9,72.7,29.68,South,186,1.0,5.0,84,0.00,,---,0.00,VWS V14.01,2013-04-10 16:30:00,
2013-04-10 11:31:00,77.9,72.7,29.68,South,184,3.0,4.0,84,0.00,,---,0.00,VWS V14.01,2013-04-10 16:31:00,
2013-04-10 11:32:00,77.9,72.7,29.68,SSE,161,5.0,6.0,84,0.00,,---,0.00,VWS V14.01,2013-04-10 16:32:00,
2013-04-10 11:33:00,77.9,72.7,29.68,South,182,6.0,6.0,84,0.00,,---,0.00,VWS V14.01,2013-04-10 16:33:00,
2013-04-10 11:34:00,78.0,72.4,29.68,SSE,164,5.0,5.0,83,0.00,,---,0.00,VWS V14.01,2013-04-10 16:34:00,
2013-04-10 11:35:00,78.0,72.4,29.68,SSE,158,3.0,6.0,83,0.00,,---,0.00,VWS V14.01,2013-04-10 16:35:00,
2013-04-10 11:36:00,78.0,72.4,29.68,SSE,159,1.0,3.0,83,0.00,,---,0.00,VWS V14.01,2013-04-10 16:36:00,
2013-04-10 11:37:00,78.0,72.4,29.68,SSE,160,2.0,4.0,83,0.00,,---,0.00,VWS V14.01,2013-04-10 16:37:00,
2013-04-10 11:38:00,78.0,72.4,29.68,SSE,160,2.0,2.0,83,0.00,,---,0.00,VWS V14.01,2013-04-10 16:38:00,
2013-04-10 11:39:00,77.9,72.3,29.68,SSE,160,0.0,3.0,83,0.00,,---,0.00,VWS V14.01,2013-04-10 16:39:00,
2013-04-10 11:40:00,77.9,72.3,29.68,SW,222,0.0,0.0,83,0.00,,---,0.00,VWS V14.01,2013-04-10 16:40:00,
2013-04-10 11:41:00,77.9,72.3,29.68,SW,222,0.0,0.0,83,0.00,,---,0.00,VWS V14.01,2013-04-10 16:41:00,
2013-04-10 11:42:00,77.9,72.3,29.68,SW,221,0.0,0.0,83,0.00,,---,0.00,VWS V14.01,2013-04-10 16:42:00,
2013-04-10 11:43:00,77.9,72.3,29.68,SW,221,0.0,0.0,83,0.00,,---,0.00,VWS V14.01,2013-04-10 16:43:00,
2013-04-10 11:44:00,77.9,72.3,29.68,South,178,2.0,5.0,83,0.00,,---,0.00,VWS V14.01,2013-04-10 16:44:00,
2013-04-10 11:45:00,77.9,72.3,29.68,South,178,4.0,5.0,83,0.00,,---,0.00,VWS V14.01,2013-04-10 16:45:00,
2013-04-10 11:46:00,78.0,72.4,29.68,South,169,4.0,6.0,83,0.00,,---,0.00,VWS V14.01,2013-04-10 16:46:00,
2013-04-10 11:47:00,78.0,72.4,29.68,South,169,4.0,4.0,83,0.00,,---,0.00,VWS V14.01,2013-04-10 16:47:00,
2013-04-10 11:48:00,78.0,72.4,29.68,SSE,168,1.0,5.0,83,0.00,,---,0.00,VWS V14.01,2013-04-10 16:48:00,
2013-04-10 11:49:00,78.0,72.4,29.68,South,169,1.0,2.0,83,0.00,,---,0.00,VWS V14.01,2013-04-10 16:49:00,
2013-04-10 11:50:00,78.0,72.4,29.68,SSE,168,3.0,4.0,83,0.00,,---,0.00,VWS V14.01,2013-04-10 16:50:00,
2013-04-10 11:51:00,78.0,72.4,29.68,South,169,1.0,4.0,83,0.00,,---,0.00,VWS V14.01,2013-04-10 16:51:00,
2013-04-10 11:52:00,78.1,72.5,29.68,South,169,3.0,5.0,83,0.00,,---,0.00,VWS V14.01,2013-04-10 16:52:00,
2013-04-10 11:53:00,78.1,72.5,29.68,South,169,2.0,3.0,83,0.00,,---,0.00,VWS V14.01,2013-04-10 16:53:00,
2013-04-10 11:54:00,78.1,72.5,29.68,SSE,168,3.0,3.0,83,0.00,,---,0.00,VWS V14.01,2013-04-10 16:54:00,
2013-04-10 11:55:00,78.2,72.6,29.68,SSE,152,0.0,5.0,83,0.00,,---,0.00,VWS V14.01,2013-04-10 16:55:00,
2013-04-10 11:56:00,78.2,72.6,29.67,ESE,121,3.0,3.0,83,0.00,,---,0.00,VWS V14.01,2013-04-10 16:56:00,
2013-04-10 11:57:00,78.2,72.6,29.68,ESE,122,1.0,4.0,83,0.00,,---,0.00,VWS V14.01,2013-04-10 16:57:00,
2013-04-10 11:58:00,78.3,72.7,29.68,ESE,122,2.0,3.0,83,0.00,,---,0.00,VWS V14.01,2013-04-10 16:58:00,
2013-04-10 11:59:00,78.3,72.7,29.68,ESE,121,3.0,3.0,83,0.00,,---,0.00,VWS V14.01,2013-04-10 16:59:00,
2013-04-10 12:00:00,78.4,72.8,29.67,ESE,121,0.0,3.0,83,0.00,,---,0.00,VWS V14.01,2013-04-10 17:00:00,
2013-04-10 12:01:00,78.4,72.8,29.67,SE,135,2.0,4.0,83,0.00,,---,0.00,VWS V14.01,2013-04-10 17:01:00,
2013-04-10 12:02:00,78.5,72.9,29.67,SE,134,1.0,2.0,83,0.00,,---,0.00,VWS V14.01,2013-04-10 17:02:00,
2013-04-10 12:03:00,78.5,72.9,29.67,SSE,160,4.0,4.0,83,0.00,,---,0.00,VWS V14.01,2013-04-10 17:03:00,
2013-04-10 12:04:00,78.6,73.0,29.67,SSE,162,3.0,3.0,83,0.00,,---,0.00,VWS V14.01,2013-04-10 17:04:00,
2013-04-10 12:05:00,78.7,73.1,29.67,SSE,162,2.0,3.0,83,0.00,,---,0.00,VWS V14.01,2013-04-10 17:05:00,
2013-04-10 12:06:00,78.7,73.1,29.67,SSE,162,0.0,2.0,83,0.00,,---,0.00,VWS V14.01,2013-04-10 17:06:00,
2013-04-10 12:07:00,78.9,73.3,29.67,SSE,164,3.0,4.0,83,0.00,,---,0.00,VWS V14.01,2013-04-10 17:07:00,
2013-04-10 12:08:00,78.9,73.3,29.67,SSE,164,4.0,4.0,83,0.00,,---,0.00,VWS V14.01,2013-04-10 17:08:00,
2013-04-10 12:09:00,79.0,73.4,29.67,SSE,165,0.0,2.0,83,0.00,,---,0.00,VWS V14.01,2013-04-10 17:09:00,
2013-04-10 12:10:00,79.1,73.5,29.67,SSE,167,2.0,3.0,83,0.00,,---,0.00,VWS V14.01,2013-04-10 17:10:00,
2013-04-10 12:11:00,79.2,73.6,29.67,SSE,165,1.0,3.0,83,0.00,,---,0.00,VWS V14.01,2013-04-10 17:11:00,
2013-04-10 12:12:00,79.3,73.3,29.67,SSE,165,3.0,3.0,82,0.00,,---,0.00,VWS V14.01,2013-04-10 17:12:00,
2013-04-10 12:13:00,79.3,73.3,29.67,SSE,165,1.0,3.0,82,0.00,,---,0.00,VWS V14.01,2013-04-10 17:13:00,
2013-04-10 12:14:00,79.4,73.4,29.67,SSE,165,0.0,2.0,82,0.00,,---,0.00,VWS V14.01,2013-04-10 17:14:00,
2013-04-10 12:15:00,79.4,73.4,29.67,SSE,165,0.0,1.0,82,0.00,,---,0.00,VWS V14.01,2013-04-10 17:15:00,
2013-04-10 12:16:00,79.4,73.4,29.67,SSE,167,3.0,3.0,82,0.00,,---,0.00,VWS V14.01,2013-04-10 17:16:00,
2013-04-10 12:17:00,79.5,73.2,29.67,SSE,168,0.0,3.0,81,0.00,,---,0.00,VWS V14.01,2013-04-10 17:17:00,
2013-04-10 12:18:00,79.5,73.2,29.67,SSE,168,0.0,0.0,81,0.00,,---,0.00,VWS V14.01,2013-04-10 17:18:00,
2013-04-10 12:19:00,79.5,73.2,29.67,SSE,168,0.0,0.0,81,0.00,,---,0.00,VWS V14.01,2013-04-10 17:19:00,
2013-04-10 12:20:00,79.5,73.2,29.67,SSE,163,1.0,2.0,81,0.00,,---,0.00,VWS V14.01,2013-04-10 17:20:00,
2013-04-10 12:21:00,79.5,73.2,29.67,SSE,161,2.0,3.0,81,0.00,,---,0.00,VWS V14.01,2013-04-10 17:21:00,
2013-04-10 12:22:00,79.5,72.8,29.67,SSE,161,0.0,2.0,80,0.00,,---,0.00,VWS V14.01,2013-04-10 17:22:00,
2013-04-10 12:23:00,79.4,73.1,29.67,SSE,161,0.0,0.0,81,0.00,,---,0.00,VWS V14.01,2013-04-10 17:23:00,
2013-04-10 12:24:00,79.4,73.1,29.67,SSE,161,2.0,2.0,81,0.00,,---,0.00,VWS V14.01,2013-04-10 17:24:00,
2013-04-10 12:25:00,79.4,73.1,29.67,SSE,161,0.0,2.0,81,0.00,,---,0.00,VWS V14.01,2013-04-10 17:25:00,
2013-04-10 12:26:00,79.4,73.1,29.67,SSE,160,0.0,1.0,81,0.00,,---,0.00,VWS V14.01,2013-04-10 17:26:00,
2013-04-10 12:27:00,79.3,73.0,29.67,SSE,160,0.0,1.0,81,0.00,,---,0.00,VWS V14.01,2013-04-10 17:27:00,
2013-04-10 12:28:00,79.3,73.0,29.67,SSE,160,0.0,0.0,81,0.00,,---,0.00,VWS V14.01,2013-04-10 17:28:00,
2013-04-10 12:29:00,79.3,73.0,29.67,SSE,161,0.0,0.0,81,0.00,,---,0.00,VWS V14.01,2013-04-10 17:29:00,
2013-04-10 12:30:00,79.3,73.0,29.67,SSE,161,0.0,0.0,81,0.00,,---,0.00,VWS V14.01,2013-04-10 17:30:00,
2013-04-10 12:31:00,79.3,73.0,29.67,SSE,161,0.0,0.0,81,0.00,,---,0.00,VWS V14.01,2013-04-10 17:31:00,
2013-04-10 12:32:00,79.3,73.0,29.67,SSE,160,0.0,0.0,81,0.00,,---,0.00,VWS V14.01,2013-04-10 17:32:00,
2013-04-10 12:33:00,79.3,73.0,29.67,SSE,160,0.0,0.0,81,0.00,,---,0.00,VWS V14.01,2013-04-10 17:33:00,
2013-04-10 12:34:00,79.3,73.0,29.67,SSE,160,0.0,0.0,81,0.00,,---,0.00,VWS V14.01,2013-04-10 17:34:00,
2013-04-10 12:35:00,79.3,73.0,29.67,SSE,161,0.0,0.0,81,0.00,,---,0.00,VWS V14.01,2013-04-10 17:35:00,
2013-04-10 12:36:00,79.3,73.0,29.67,SSE,161,0.0,0.0,81,0.00,,---,0.00,VWS V14.01,2013-04-10 17:36:00,
2013-04-10 12:37:00,79.3,73.0,29.67,SSE,161,0.0,0.0,81,0.00,,---,0.00,VWS V14.01,2013-04-10 17:37:00,
2013-04-10 12:38:00,79.3,73.0,29.67,SSE,160,0.0,0.0,81,0.00,,---,0.00,VWS V14.01,2013-04-10 17:38:00,
2013-04-10 12:39:00,79.3,73.0,29.67,SSE,161,0.0,0.0,81,0.00,,---,0.00,VWS V14.01,2013-04-10 17:39:00,
2013-04-10 12:40:00,79.2,72.5,29.67,SSE,161,0.0,0.0,80,0.00,,---,0.00,VWS V14.01,2013-04-10 17:40:00,
2013-04-10 12:43:00,79.3,73.0,29.67,SSE,159,0.0,0.0,81,0.00,,---,0.00,VWS V14.01,2013-04-10 17:43:00,
2013-04-10 12:50:00,79.3,73.0,29.67,North,0,0.0,0.0,81,0.00,,---,0.00,VWS V14.01,2013-04-10 17:50:00,
2013-04-10 12:55:00,79.4,73.1,29.67,NNW,347,0.0,0.0,81,0.00,,---,0.00,VWS V14.01,2013-04-10 17:55:00,
2013-04-10 13:00:00,79.6,73.3,29.67,NNW,347,0.0,0.0,81,0.00,,---,0.00,VWS V14.01,2013-04-10 18:00:00,
2013-04-10 13:05:00,79.8,73.1,29.67,NNW,348,0.0,0.0,80,0.00,,---,0.00,VWS V14.01,2013-04-10 18:05:00,
2013-04-10 13:10:00,79.7,73.0,29.67,ESE,108,4.0,5.0,80,0.00,,---,0.00,VWS V14.01,2013-04-10 18:10:00,
2013-04-10 13:15:00,79.6,73.3,29.67,East,101,4.0,5.0,81,0.00,,---,0.00,VWS V14.01,2013-04-10 18:15:00,
2013-04-10 13:20:00,79.4,73.1,29.67,SE,141,3.0,6.0,81,0.00,,---,0.00,VWS V14.01,2013-04-10 18:20:00,
2013-04-10 13:25:00,79.4,73.1,29.67,East,92,4.0,5.0,81,0.00,,---,0.00,VWS V14.01,2013-04-10 18:25:00,
2013-04-10 13:30:00,79.5,73.2,29.67,SE,129,3.0,3.0,81,0.00,,---,0.00,VWS V14.01,2013-04-10 18:30:00,
2013-04-10 13:35:00,79.6,73.3,29.67,ESE,119,4.0,4.0,81,0.00,,---,0.00,VWS V14.01,2013-04-10 18:35:00,
2013-04-10 13:40:00,79.8,73.4,29.66,ENE,75,1.0,3.0,81,0.00,,---,0.00,VWS V14.01,2013-04-10 18:40:00,
2013-04-10 13:45:00,80.2,73.5,29.66,East,93,7.0,7.0,80,0.00,,---,0.00,VWS V14.01,2013-04-10 18:45:00,
2013-04-10 13:50:00,80.5,73.8,29.65,ESE,108,5.0,7.0,80,0.00,,---,0.00,VWS V14.01,2013-04-10 18:50:00,
2013-04-10 13:55:00,80.9,73.8,29.65,East,95,2.0,6.0,79,0.00,,---,0.00,VWS V14.01,2013-04-10 18:55:00,
2013-04-10 14:00:00,81.0,73.5,29.65,East,99,3.0,5.0,78,0.00,,---,0.00,VWS V14.01,2013-04-10 19:00:00,
2013-04-10 14:05:00,81.2,74.1,29.64,SE,126,6.0,6.0,79,0.00,,---,0.00,VWS V14.01,2013-04-10 19:05:00,
2013-04-10 14:10:00,81.7,73.8,29.64,ESE,102,8.0,10.0,77,0.00,,---,0.00,VWS V14.01,2013-04-10 19:10:00,
2013-04-10 14:15:00,82.0,74.5,29.65,ESE,110,5.0,7.0,78,0.00,,---,0.00,VWS V14.01,2013-04-10 19:15:00,
2013-04-10 14:20:00,82.7,74.8,29.67,NNW,333,16.0,18.0,77,0.00,,---,0.00,VWS V14.01,2013-04-10 19:20:00,
2013-04-10 14:25:00,79.2,62.7,29.67,NNW,329,17.0,21.0,57,0.00,,---,0.00,VWS V14.01,2013-04-10 19:25:00,
2013-04-10 14:30:00,75.4,61.0,29.67,NW,314,23.0,24.0,61,0.00,,---,0.00,VWS V14.01,2013-04-10 19:30:00,
2013-04-10 14:35:00,72.6,59.7,29.67,NNW,330,22.0,23.0,64,0.00,,---,0.00,VWS V14.01,2013-04-10 19:35:00,
2013-04-10 14:40:00,71.5,60.4,29.67,NNW,329,20.0,24.0,68,0.00,,---,0.00,VWS V14.01,2013-04-10 19:40:00,
2013-04-10 14:45:00,71.1,60.8,29.67,NNW,343,25.0,28.0,70,0.00,,---,0.00,VWS V14.01,2013-04-10 19:45:00,
2013-04-10 14:50:00,71.8,61.5,29.67,NNE,18,12.0,21.0,70,0.00,,---,0.00,VWS V14.01,2013-04-10 19:50:00,
2013-04-10 14:55:00,72.1,60.5,29.67,NNW,342,14.0,21.0,67,0.00,,---,0.00,VWS V14.01,2013-04-10 19:55:00,
2013-04-10 15:00:00,72.0,60.5,29.67,North,5,16.0,25.0,67,0.00,,---,0.00,VWS V14.01,2013-04-10 20:00:00,
2013-04-10 15:05:00,71.9,59.5,29.68,NNW,345,11.0,17.0,65,0.00,,---,0.00,VWS V14.01,2013-04-10 20:05:00,
2013-04-10 15:10:00,71.2,58.4,29.68,North,355,7.0,18.0,64,0.00,,---,0.00,VWS V14.01,2013-04-10 20:10:00,
2013-04-10 15:15:00,69.9,57.6,29.68,NNW,334,4.0,16.0,65,0.00,,---,0.00,VWS V14.01,2013-04-10 20:15:00,
2013-04-10 15:20:00,68.9,57.1,29.68,North,350,10.0,14.0,66,0.00,,---,0.00,VWS V14.01,2013-04-10 20:20:00,
2013-04-10 15:25:00,68.0,57.1,29.68,North,9,6.0,15.0,68,0.00,,---,0.00,VWS V14.01,2013-04-10 20:25:00,
2013-04-10 15:30:00,66.9,56.4,29.68,North,360,13.0,24.0,69,0.00,,---,0.00,VWS V14.01,2013-04-10 20:30:00,
2013-04-10 15:35:00,65.7,55.7,29.68,NNW,348,16.0,18.0,70,0.00,,---,0.00,VWS V14.01,2013-04-10 20:35:00,
2013-04-10 15:40:00,64.8,55.6,29.68,NNE,30,14.0,15.0,72,0.00,,---,0.00,VWS V14.01,2013-04-10 20:40:00,
2013-04-10 15:45:00,64.3,55.1,29.69,North,360,6.0,21.0,72,0.00,,---,0.00,VWS V14.01,2013-04-10 20:45:00,
2013-04-10 15:50:00,63.8,55.4,29.68,NNW,330,14.0,20.0,74,0.00,,---,0.00,VWS V14.01,2013-04-10 20:50:00,
2013-04-10 15:55:00,63.2,54.8,29.68,NNW,342,5.0,14.0,74,0.00,,---,0.00,VWS V14.01,2013-04-10 20:55:00,
2013-04-10 16:00:00,63.1,55.1,29.68,NNE,13,17.0,18.0,75,0.00,,---,0.00,VWS V14.01,2013-04-10 21:00:00,
2013-04-10 16:05:00,62.6,54.6,29.68,NNE,17,19.0,20.0,75,0.00,,---,0.00,VWS V14.01,2013-04-10 21:05:00,
2013-04-10 16:10:00,62.3,54.7,29.68,NW,313,18.0,21.0,76,0.00,,---,0.00,VWS V14.01,2013-04-10 21:10:00,
2013-04-10 16:15:00,62.0,54.4,29.68,NNE,28,11.0,14.0,76,0.00,,---,0.00,VWS V14.01,2013-04-10 21:15:00,
2013-04-10 16:20:00,61.8,54.2,29.68,NNW,348,6.0,19.0,76,0.00,,---,0.00,VWS V14.01,2013-04-10 21:20:00,
2013-04-10 16:25:00,61.5,53.9,29.69,NNE,29,16.0,16.0,76,0.00,,---,0.00,VWS V14.01,2013-04-10 21:25:00,
2013-04-10 16:30:00,61.3,53.7,29.68,North,360,11.0,18.0,76,0.00,,---,0.00,VWS V14.01,2013-04-10 21:30:00,
2013-04-10 16:35:00,61.0,53.4,29.69,NNW,345,6.0,14.0,76,0.00,,---,0.00,VWS V14.01,2013-04-10 21:35:00,
2013-04-10 16:40:00,60.9,53.7,29.68,NNW,336,12.0,14.0,77,0.00,,---,0.00,VWS V14.01,2013-04-10 21:40:00,
2013-04-10 16:45:00,60.9,53.7,29.69,NNW,337,15.0,19.0,77,0.00,,---,0.00,VWS V14.01,2013-04-10 21:45:00,
2013-04-10 16:50:00,60.8,53.5,29.68,NNW,345,9.0,15.0,77,0.00,,---,0.00,VWS V14.01,2013-04-10 21:50:00,
2013-04-10 16:55:00,60.6,53.4,29.68,NNW,336,12.0,15.0,77,0.00,,---,0.00,VWS V14.01,2013-04-10 21:55:00,
2013-04-10 17:00:00,60.6,53.4,29.68,NNE,12,6.0,14.0,77,0.00,,---,0.00,VWS V14.01,2013-04-10 22:00:00,
2013-04-10 17:05:00,60.6,53.4,29.68,NNE,30,9.0,15.0,77,0.00,,---,0.00,VWS V14.01,2013-04-10 22:05:00,
2013-04-10 17:10:00,60.8,53.9,29.68,NNW,330,19.0,19.0,78,0.00,,---,0.00,VWS V14.01,2013-04-10 22:10:00,
2013-04-10 17:15:00,60.8,53.9,29.68,NW,313,9.0,24.0,78,0.00,,---,0.00,VWS V14.01,2013-04-10 22:15:00,
2013-04-10 17:19:00,60.7,53.8,29.68,NW,315,6.0,13.0,78,0.00,,---,0.00,VWS V14.01,2013-04-10 22:19:00,
2013-04-10 17:24:00,60.7,53.8,29.68,North,355,11.0,14.0,78,0.00,,---,0.00,VWS V14.01,2013-04-10 22:24:00,
2013-04-10 17:29:00,60.7,53.8,29.68,North,9,11.0,15.0,78,0.00,,---,0.00,VWS V14.01,2013-04-10 22:29:00,
2013-04-10 17:35:00,60.6,54.1,29.68,NE,35,16.0,16.0,79,0.00,,---,0.00,VWS V14.01,2013-04-10 22:35:00,
2013-04-10 17:40:00,60.5,54.0,29.68,NNE,28,14.0,17.0,79,0.00,,---,0.00,VWS V14.01,2013-04-10 22:40:00,
2013-04-10 17:45:00,60.4,53.9,29.68,North,11,15.0,18.0,79,0.00,,---,0.00,VWS V14.01,2013-04-10 22:45:00,
2013-04-10 17:50:00,60.4,53.9,29.68,NNE,25,10.0,12.0,79,0.00,,---,0.00,VWS V14.01,2013-04-10 22:50:00,
2013-04-10 17:55:00,60.4,53.9,29.68,NNE,13,13.0,15.0,79,0.00,,---,0.00,VWS V14.01,2013-04-10 22:55:00,
2013-04-10 18:00:00,60.4,53.9,29.68,NNE,24,11.0,14.0,79,0.00,,---,0.00,VWS V14.01,2013-04-10 23:00:00,
2013-04-10 18:05:00,60.2,53.7,29.68,North,355,7.0,11.0,79,0.00,,---,0.00,VWS V14.01,2013-04-10 23:05:00,
2013-04-10 18:10:00,60.1,53.6,29.68,North,5,10.0,19.0,79,0.00,,---,0.00,VWS V14.01,2013-04-10 23:10:00,
2013-04-10 18:14:00,60.0,53.8,29.68,NE,38,10.0,13.0,80,0.00,,---,0.00,VWS V14.01,2013-04-10 23:14:00,
2013-04-10 18:19:00,60.0,53.8,29.68,North,11,4.0,16.0,80,0.00,,---,0.00,VWS V14.01,2013-04-10 23:19:00,
2013-04-10 18:24:00,60.0,53.8,29.68,NNE,26,14.0,17.0,80,0.00,,---,0.00,VWS V14.01,2013-04-10 23:24:00,
2013-04-10 18:29:00,59.8,53.6,29.68,North,360,16.0,21.0,80,0.00,,---,0.00,VWS V14.01,2013-04-10 23:29:00,
2013-04-10 18:34:00,59.7,53.5,29.69,North,355,3.0,13.0,80,0.00,,---,0.00,VWS V14.01,2013-04-10 23:34:00,
2013-04-10 18:39:00,59.7,53.5,29.69,NNE,22,11.0,23.0,80,0.00,,---,0.00,VWS V14.01,2013-04-10 23:39:00,
2013-04-10 18:44:00,59.6,53.4,29.68,NE,37,4.0,10.0,80,0.00,,---,0.00,VWS V14.01,2013-04-10 23:44:00,
2013-04-10 18:49:00,59.6,53.8,29.69,North,9,14.0,19.0,81,0.00,,---,0.00,VWS V14.01,2013-04-10 23:49:00,
2013-04-10 18:54:00,59.5,53.7,29.68,North,360,6.0,10.0,81,0.00,,---,0.00,VWS V14.01,2013-04-10 23:54:00,
2013-04-10 18:59:00,59.5,53.7,29.68,NNE,19,15.0,23.0,81,0.00,,---,0.00,VWS V14.01,2013-04-10 23:59:00,
2013-04-10 19:04:00,59.6,53.8,29.68,NNE,15,13.0,18.0,81,0.00,,---,0.00,VWS V14.01,2013-04-11 00:04:00,
2013-04-10 19:09:00,59.7,53.5,29.68,NNE,29,15.0,15.0,80,0.00,,---,0.00,VWS V14.01,2013-04-11 00:09:00,
2013-04-10 19:14:00,59.8,53.6,29.69,NE,41,8.0,12.0,80,0.00,,---,0.00,VWS V14.01,2013-04-11 00:14:00,
2013-04-10 19:19:00,59.9,53.4,29.69,NE,34,14.0,19.0,79,0.00,,---,0.00,VWS V14.01,2013-04-11 00:19:00,
2013-04-10 19:24:00,59.9,53.4,29.69,NNE,17,15.0,19.0,79,0.00,,---,0.00,VWS V14.01,2013-04-11 00:24:00,
2013-04-10 19:29:00,60.0,53.5,29.69,NNE,22,13.0,14.0,79,0.00,,---,0.00,VWS V14.01,2013-04-11 00:29:00,
2013-04-10 19:34:00,60.0,53.1,29.69,North,9,8.0,17.0,78,0.00,,---,0.00,VWS V14.01,2013-04-11 00:34:00,
2013-04-10 19:39:00,60.2,53.3,29.69,NNE,19,8.0,8.0,78,0.00,,---,0.00,VWS V14.01,2013-04-11 00:39:00,
2013-04-10 19:44:00,60.2,53.3,29.69,North,11,10.0,18.0,78,0.00,,---,0.00,VWS V14.01,2013-04-11 00:44:00,
2013-04-10 19:49:00,60.3,53.1,29.69,North,11,7.0,16.0,77,0.00,,---,0.00,VWS V14.01,2013-04-11 00:49:00,
2013-04-10 19:54:00,60.4,53.2,29.69,NNE,25,12.0,16.0,77,0.00,,---,0.00,VWS V14.01,2013-04-11 00:54:00,
2013-04-10 19:59:00,60.5,53.3,29.69,NE,45,15.0,15.0,77,0.00,,---,0.00,VWS V14.01,2013-04-11 00:59:00,
2013-04-10 20:04:00,60.6,53.4,29.70,NNE,30,12.0,14.0,77,0.00,,---,0.00,VWS V14.01,2013-04-11 01:04:00,
2013-04-10 20:09:00,60.7,53.1,29.70,North,11,13.0,13.0,76,0.00,,---,0.00,VWS V14.01,2013-04-11 01:09:00,
2013-04-10 20:14:00,60.9,53.3,29.70,NNE,17,17.0,20.0,76,0.00,,---,0.00,VWS V14.01,2013-04-11 01:14:00,
2013-04-10 20:19:00,60.9,52.9,29.71,NNE,21,16.0,22.0,75,0.00,,---,0.00,VWS V14.01,2013-04-11 01:19:00,
2013-04-10 20:24:00,60.9,52.9,29.71,NNE,17,10.0,16.0,75,0.00,,---,0.00,VWS V14.01,2013-04-11 01:24:00,
2013-04-10 20:29:00,61.0,53.0,29.71,NNE,26,17.0,20.0,75,0.00,,---,0.00,VWS V14.01,2013-04-11 01:29:00,
2013-04-10 20:34:00,61.0,53.0,29.71,North,5,14.0,15.0,75,0.00,,---,0.00,VWS V14.01,2013-04-11 01:34:00,
2013-04-10 20:39:00,61.0,53.0,29.71,NNE,15,6.0,13.0,75,0.00,,---,0.00,VWS V14.01,2013-04-11 01:39:00,
2013-04-10 20:44:00,61.0,53.0,29.71,North,10,15.0,18.0,75,0.00,,---,0.00,VWS V14.01,2013-04-11 01:44:00,
2013-04-10 20:49:00,61.0,53.0,29.71,North,5,5.0,16.0,75,0.00,,---,0.00,VWS V14.01,2013-04-11 01:49:00,
2013-04-10 20:54:00,60.9,52.9,29.71,North,355,11.0,12.0,75,0.00,,---,0.00,VWS V14.01,2013-04-11 01:54:00,
2013-04-10 20:59:00,60.9,52.9,29.72,North,360,9.0,15.0,75,0.00,,---,0.00,VWS V14.01,2013-04-11 01:59:00,
2013-04-10 21:04:00,60.9,52.9,29.72,North,5,18.0,21.0,75,0.00,,---,0.00,VWS V14.01,2013-04-11 02:04:00,
2013-04-10 21:09:00,60.9,52.9,29.72,NNW,346,15.0,19.0,75,0.00,,---,0.00,VWS V14.01,2013-04-11 02:09:00,
2013-04-10 21:14:00,60.9,52.9,29.72,NNE,26,10.0,11.0,75,0.00,,---,0.00,VWS V14.01,2013-04-11 02:14:00,
2013-04-10 21:19:00,60.9,52.9,29.72,North,5,11.0,12.0,75,0.00,,---,0.00,VWS V14.01,2013-04-11 02:19:00,
2013-04-10 21:24:00,60.9,52.9,29.73,North,5,14.0,14.0,75,0.00,,---,0.00,VWS V14.01,2013-04-11 02:24:00,
2013-04-10 21:29:00,60.9,52.9,29.72,NNE,15,9.0,13.0,75,0.00,,---,0.00,VWS V14.01,2013-04-11 02:29:00,
2013-04-10 21:34:00,60.9,52.9,29.73,NNE,18,9.0,13.0,75,0.00,,---,0.00,VWS V14.01,2013-04-11 02:34:00,
2013-04-10 21:39:00,60.8,53.2,29.73,North,5,6.0,9.0,76,0.00,,---,0.00,VWS V14.01,2013-04-11 02:39:00,
2013-04-10 21:44:00,60.8,52.5,29.74,NNE,14,6.0,6.0,74,0.00,,---,0.00,VWS V14.01,2013-04-11 02:44:00,
2013-04-10 21:49:00,60.7,52.4,29.74,North,360,13.0,18.0,74,0.00,,---,0.00,VWS V14.01,2013-04-11 02:49:00,
2013-04-10 21:54:00,60.6,52.3,29.74,NNE,13,15.0,15.0,74,0.00,,---,0.00,VWS V14.01,2013-04-11 02:54:00,
2013-04-10 21:59:00,60.5,52.2,29.74,North,10,18.0,20.0,74,0.00,,---,0.00,VWS V14.01,2013-04-11 02:59:00,
2013-04-10 22:04:00,60.5,52.5,29.74,NNE,22,8.0,17.0,75,0.00,,---,0.00,VWS V14.01,2013-04-11 03:04:00,
2013-04-10 22:09:00,60.5,52.5,29.75,NNE,25,14.0,15.0,75,0.00,,---,0.00,VWS V14.01,2013-04-11 03:09:00,
2013-04-10 22:14:00,60.4,52.5,29.75,NNE,26,11.0,12.0,75,0.00,,---,0.00,VWS V14.01,2013-04-11 03:14:00,
2013-04-10 22:19:00,60.3,52.0,29.75,NNE,19,9.0,20.0,74,0.00,,---,0.00,VWS V14.01,2013-04-11 03:19:00,
2013-04-10 22:24:00,60.1,51.8,29.75,North,350,9.0,15.0,74,0.00,,---,0.00,VWS V14.01,2013-04-11 03:24:00,
2013-04-10 22:29:00,60.0,52.1,29.76,NNE,32,14.0,16.0,75,0.00,,---,0.00,VWS V14.01,2013-04-11 03:29:00,
2013-04-10 22:34:00,59.9,52.3,29.76,NNE,15,13.0,16.0,76,0.00,,---,0.00,VWS V14.01,2013-04-11 03:34:00,
2013-04-10 22:39:00,59.8,51.9,29.76,NNE,33,13.0,14.0,75,0.00,,---,0.00,VWS V14.01,2013-04-11 03:39:00,
2013-04-10 22:44:00,59.8,51.9,29.76,North,10,16.0,16.0,75,0.00,,---,0.00,VWS V14.01,2013-04-11 03:44:00,
2013-04-10 22:49:00,59.6,52.0,29.76,NNW,338,3.0,14.0,76,0.00,,---,0.00,VWS V14.01,2013-04-11 03:49:00,
2013-04-10 22:54:00,59.4,51.8,29.77,North,11,3.0,13.0,76,0.00,,---,0.00,VWS V14.01,2013-04-11 03:54:00,
2013-04-10 22:59:00,59.1,51.5,29.77,NNW,334,7.0,16.0,76,0.00,,---,0.00,VWS V14.01,2013-04-11 03:59:00,
2013-04-10 23:00:00,59.1,51.5,29.77,NW,311,11.0,14.0,76,0.00,,---,0.00,VWS V14.01,2013-04-11 04:00:00,
2013-04-10 23:05:00,58.9,51.4,29.78,NNW,337,3.0,11.0,76,0.00,,---,0.00,VWS V14.01,2013-04-11 04:05:00,
2013-04-10 23:10:00,58.8,51.3,29.78,North,355,8.0,14.0,76,0.00,,---,0.00,VWS V14.01,2013-04-11 04:10:00,
2013-04-10 23:15:00,58.8,51.6,29.79,NNE,17,14.0,16.0,77,0.00,,---,0.00,VWS V14.01,2013-04-11 04:15:00,
2013-04-10 23:20:00,58.7,51.2,29.79,North,355,14.0,17.0,76,0.00,,---,0.00,VWS V14.01,2013-04-11 04:20:00,
2013-04-10 23:25:00,58.6,51.1,29.79,NE,41,6.0,14.0,76,0.00,,---,0.00,VWS V14.01,2013-04-11 04:25:00,
2013-04-10 23:30:00,58.6,51.4,29.79,NNW,333,7.0,10.0,77,0.00,,---,0.00,VWS V14.01,2013-04-11 04:30:00,
2013-04-10 23:35:00,58.6,51.4,29.79,North,360,4.0,7.0,77,0.00,,---,0.00,VWS V14.01,2013-04-11 04:35:00,
2013-04-10 23:40:00,58.5,51.3,29.80,NW,324,4.0,7.0,77,0.00,,---,0.00,VWS V14.01,2013-04-11 04:40:00,
2013-04-10 23:45:00,58.4,51.2,29.80,North,355,4.0,12.0,77,0.00,,---,0.00,VWS V14.01,2013-04-11 04:45:00,
2013-04-10 23:50:00,58.3,50.8,29.80,NNE,17,7.0,10.0,76,0.00,,---,0.00,VWS V14.01,2013-04-11 04:50:00,
2013-04-10 23:55:00,58.3,51.1,29.80,NNW,331,4.0,7.0,77,0.00,,---,0.00,VWS V14.01,2013-04-11 04:55:00,